[{"header": {"dx": 0.06612293990616946, "dy": 0.0552356325346848, "nx": 98, "ny": 59, "la1": 35.046912555036876, "la2": 31.78801023549047, "lo1": -121.43107172385933, "lo2": -114.95102361305473, "refTime": "2026040922", "parameterCategory": 1, "parameterNumber": 2}, "data": [4.92, 4.92, 4.92, 4.92, 4.92, 4.92, 4.88, 4.44, 4.44, 4.47, 4.47, 4.47, 6.71, 7.1, 7.55, 8.05, 8.05, 8.05, 8.49, 8.49, 8.49, 8.49, 8.0, 8.49, 8.94, 8.94, 8.9, 8.45, 5.58, 0.0, -1.05, 0.0, 0.0, 0.0, 0.0, 1.05, 0.96, 2.16, 3.22, 4.19, 4.74, 5.84, 6.98, 8.18, 9.86, 9.36, 10.6, 10.89, 11.05, 11.14, 11.14, 11.62, 11.62, 11.62, 12.07, 12.52, 12.49, 12.94, 12.86, 12.86, 12.86, 12.74, 12.74, 12.53, 12.58, 13.01, 13.44, 13.44, 13.44, 13.01, 12.53, 12.09, 11.61, 11.61, 11.61, 11.36, 11.36, 10.62, 10.6, 9.8, 9.35, 8.9, 8.49, 7.6, 7.15, 5.81, 5.26, 5.26, 6.26, 7.15, 7.6, 8.05, 8.0, 6.6, 4.26, 3.45, 4.5, 5.53, 4.47, 4.92, 4.92, 4.92, 4.89, 4.89, 4.88, 4.44, 4.44, 4.47, 4.02, 5.81, 6.64, 6.98, 8.41, 8.41, 7.55, 8.94, 8.49, 7.6, 8.49, 8.49, 8.38, 8.49, 8.05, 8.49, 8.94, 8.9, 6.99, 1.84, 0.0, 0.0, 0.0, 0.0, 0.0, 0.96, 0.89, 1.03, 1.98, 3.72, 4.87, 5.59, 6.64, 7.81, 8.82, 9.36, 9.97, 10.14, 10.25, 10.25, 10.28, 10.73, 10.73, 10.73, 11.15, 11.59, 11.95, 11.96, 12.41, 12.41, 12.27, 12.27, 11.84, 12.27, 12.27, 12.74, 13.18, 13.18, 13.18, 12.74, 12.71, 12.27, 11.8, 11.95, 11.95, 11.51, 11.59, 10.62, 10.6, 9.8, 9.35, 8.9, 8.49, 7.6, 7.15, 5.81, 5.26, 5.26, 6.26, 7.15, 7.6, 8.05, 8.0, 6.6, 4.26, 3.45, 4.5, 5.53, 4.47, 4.92, 4.92, 4.89, 4.89, 4.89, 4.88, 4.44, 4.44, 3.98, 3.58, 4.02, 6.64, 6.94, 6.98, 7.85, 7.85, 8.33, 8.44, 8.94, 7.6, 8.49, 8.49, 8.38, 8.85, 8.05, 8.49, 8.9, 7.63, 4.58, 1.03, 0.96, 0.0, 0.0, 0.0, 0.0, 0.0, 0.89, 1.84, 2.82, 4.26, 5.59, 7.06, 7.41, 8.4, 8.72, 9.24, 9.35, 9.39, 9.39, 9.79, 9.7, 9.97, 10.41, 10.32, 11.33, 11.18, 11.8, 11.8, 11.8, 11.8, 11.8, 11.36, 11.8, 11.84, 12.41, 12.41, 12.85, 12.85, 12.41, 12.41, 11.96, 12.04, 12.04, 11.62, 11.62, 11.62, 11.14, 9.81, 9.8, 9.39, 8.49, 8.05, 7.6, 6.71, 6.26, 5.59, 5.94, 6.45, 6.88, 7.1, 7.6, 6.94, 5.37, 3.6, 4.26, 5.24, 6.01, 4.47, 4.92, 4.89, 4.89, 4.89, 4.89, 4.88, 4.44, 4.44, 3.98, 3.54, 3.98, 6.2, 6.94, 7.42, 7.63, 8.06, 8.48, 8.33, 8.45, 8.0, 8.94, 8.49, 8.05, 8.45, 9.83, 8.49, 8.9, 8.06, 5.69, 3.4, 2.82, 2.6, 1.7, 1.55, 0.0, 0.0, 0.0, 0.94, 2.54, 4.34, 5.21, 6.01, 7.2, 7.85, 8.05, 8.49, 8.9, 8.99, 9.24, 9.08, 9.9, 10.0, 10.0, 10.55, 10.85, 11.37, 11.37, 11.61, 11.61, 11.61, 11.18, 11.36, 11.36, 11.95, 11.95, 12.41, 11.98, 11.99, 11.98, 12.41, 12.04, 11.62, 11.18, 11.18, 11.18, 11.18, 10.73, 10.28, 9.39, 8.49, 8.49, 8.05, 7.15, 7.15, 7.1, 6.88, 6.16, 6.16, 6.45, 7.08, 7.15, 6.16, 4.42, 4.26, 4.68, 6.11, 6.45, 4.47, 4.47, 4.88, 4.89, 4.89, 4.89, 4.88, 4.44, 4.44, 3.98, 3.53, 3.98, 6.17, 6.88, 7.37, 7.63, 7.47, 7.76, 8.17, 8.06, 9.29, 8.38, 8.49, 8.94, 8.05, 9.39, 8.94, 8.94, 7.89, 5.49, 4.68, 4.42, 5.06, 5.58, 6.0, 3.72, 1.52, 1.52, 0.89, 2.54, 3.6, 4.58, 5.2, 6.26, 7.37, 7.76, 8.4, 8.43, 9.05, 9.43, 9.65, 10.04, 10.04, 10.63, 10.63, 11.09, 11.09, 11.79, 11.79, 11.61, 11.18, 11.18, 11.36, 11.36, 11.51, 11.51, 11.51, 11.36, 11.61, 11.61, 11.8, 11.36, 10.62, 10.7, 10.28, 9.83, 10.25, 9.83, 8.9, 8.91, 8.46, 8.44, 7.55, 7.1, 6.64, 7.1, 7.15, 6.64, 6.71, 6.71, 6.71, 6.45, 5.49, 4.26, 4.68, 5.69, 6.55, 6.55, 4.47, 4.47, 4.88, 4.88, 4.89, 4.89, 4.88, 4.34, 4.3, 3.98, 3.53, 3.53, 5.51, 6.88, 7.81, 7.63, 8.06, 8.17, 7.76, 8.17, 8.48, 7.85, 8.82, 8.49, 8.49, 8.49, 8.49, 8.38, 7.45, 6.71, 4.98, 4.74, 6.55, 8.17, 8.63, 7.63, 4.57, 0.99, 0.0, 0.0, 1.05, 3.13, 3.58, 5.15, 6.79, 7.76, 8.38, 8.73, 9.4, 9.67, 10.04, 10.04, 10.43, 10.63, 11.02, 11.5, 11.37, 11.37, 12.04, 11.61, 11.36, 11.33, 11.36, 11.51, 11.36, 10.68, 9.9, 9.6, 10.4, 10.96, 10.96, 10.85, 11.11, 10.6, 9.8, 8.94, 8.49, 8.05, 7.6, 8.0, 7.37, 7.1, 6.71, 6.26, 5.81, 6.17, 6.45, 6.57, 6.57, 6.57, 6.6, 6.18, 4.68, 4.26, 5.24, 6.55, 6.82, 6.55, 4.47, 4.47, 4.88, 4.88, 4.89, 4.89, 4.77, 4.34, 4.3, 3.87, 3.39, 3.53, 5.94, 6.7, 8.6, 7.63, 8.56, 8.91, 8.17, 7.6, 8.4, 8.99, 8.9, 8.49, 8.94, 8.38, 8.38, 8.06, 8.0, 6.99, 7.89, 6.64, 7.2, 8.72, 8.9, 8.8, 8.17, 5.6, 0.0, 0.0, 2.24, -0.0, 2.54, 5.21, 6.58, 6.83, 8.64, 9.0, 9.67, 10.04, 10.55, 10.04, 10.63, 10.63, 11.09, 11.79, 11.61, 11.8, 11.96, 11.95, 11.51, 11.14, 11.06, 10.45, 9.42, 8.73, 8.73, 8.73, 9.43, 10.04, 10.55, 10.85, 10.75, 10.89, 9.68, 8.9, 7.54, 7.08, 6.64, 5.73, 5.81, 5.36, 5.26, 4.29, 4.11, 4.11, 5.49, 6.18, 6.55, 6.55, 6.08, 5.3, 4.68, 5.24, 6.18, 7.2, 7.2, 6.18, 4.47, 4.47, 4.44, 4.88, 4.89, 4.8, 4.8, 4.77, 4.34, 3.87, 3.2, 2.68, 5.4, 6.6, 8.0, 7.03, 8.0, 8.72, 8.4, 8.72, 8.72, 9.06, 9.68, 9.8, 9.83, 10.28, 9.29, 9.03, 8.8, 9.04, 9.46, 9.29, 8.94, 8.49, 7.03, 7.35, 8.03, 8.8, 7.15, 3.6, 1.41, 1.26, 4.05, 5.32, 6.24, 7.56, 8.64, 10.04, 10.04, 10.41, 9.65, 10.04, 10.63, 10.96, 11.37, 11.8, 11.95, 12.04, 11.62, 11.62, 11.18, 10.73, 9.68, 7.81, 6.7, 7.36, 8.64, 8.38, 9.42, 10.0, 10.43, 11.36, 11.51, 11.14, 10.25, 8.36, 7.85, 6.94, 6.64, 5.4, 3.35, 2.84, 1.8, 1.83, 2.4, 3.22, 4.81, 5.95, 6.6, 6.18, 5.43, 4.65, 4.87, 5.84, 6.6, 7.12, 6.6, 5.37, 4.47, 4.44, 4.44, 4.88, 4.8, 4.8, 4.8, 4.77, 4.6, 4.11, 3.35, 2.84, 6.08, 6.18, 6.91, 6.45, 7.51, 7.81, 8.4, 8.58, 8.4, 9.04, 8.58, 9.42, 9.68, 10.73, 9.83, 9.29, 9.46, 10.2, 9.76, 9.74, 8.4, 6.95, 6.31, 7.27, 9.32, 9.45, 9.04, 7.44, 5.1, 5.0, 5.0, 6.5, 7.9, 8.38, 10.01, 10.79, 10.29, 10.01, 10.79, 10.04, 10.23, 10.85, 11.11, 11.36, 11.06, 11.15, 11.18, 11.18, 10.7, 8.49, 5.49, 4.25, 5.51, 7.64, 8.64, 9.05, 9.42, 10.18, 11.36, 11.6, 12.52, 11.18, 10.28, 9.39, 8.05, 7.54, 6.64, 4.66, 3.72, 1.13, -0.0, 0.98, 1.8, 3.58, 4.22, 5.94, 5.2, 4.84, 4.11, 4.11, 4.81, 6.21, 7.12, 6.99, 6.6, 5.37, 4.47, 4.44, 4.44, 4.88, 4.77, 4.8, 5.24, 4.66, 4.6, 4.6, 4.27, 4.07, 4.94, 5.75, 7.58, 6.91, 6.79, 6.79, 7.81, 8.0, 8.0, 8.0, 8.0, 8.0, 9.03, 9.29, 9.39, 9.39, 9.74, 10.2, 10.2, 9.46, 7.56, 5.7, 6.58, 8.73, 10.05, 8.72, 8.82, 9.17, 8.3, 8.12, 7.48, 7.68, 8.42, 9.43, 10.04, 10.63, 10.66, 10.37, 9.66, 9.67, 9.65, 9.6, 9.9, 10.18, 9.66, 9.49, 9.7, 9.83, 8.0, 4.11, 2.33, 3.32, 5.93, 7.64, 8.64, 8.58, 9.27, 10.68, 12.04, 12.07, 12.43, 11.86, 10.49, 8.67, 8.44, 7.15, 5.81, 4.57, 2.84, 1.98, 0.99, 1.2, 2.8, 3.39, 3.9, 3.39, 2.98, 2.23, 3.16, 3.58, 4.6, 6.0, 6.21, 6.6, 5.84, 5.69, 4.47, 4.44, 4.44, 4.77, 4.77, 5.24, 5.24, 5.09, 5.09, 4.8, 4.55, 4.65, 5.86, 6.8, 9.55, 8.82, 8.99, 4.8, 5.34, 5.79, 9.79, 9.34, 8.9, 8.49, 8.94, 8.94, 9.29, 9.29, 9.46, 9.46, 10.41, 10.08, 8.12, 6.64, 7.2, 9.89, 10.46, 9.86, 9.34, 10.58, 10.92, 9.96, 9.0, 9.48, 9.1, 9.03, 9.6, 9.43, 9.04, 8.73, 9.0, 9.0, 8.73, 8.38, 7.68, 7.68, 7.68, 7.76, 8.72, 8.05, 4.4, 0.85, 2.54, 4.0, 5.8, 6.56, 7.64, 8.22, 9.43, 10.68, 12.04, 12.5, 12.62, 11.72, 9.84, 8.24, 7.03, 6.88, 4.92, 3.72, 2.68, 3.58, 4.0, 2.8, 2.8, 2.97, 2.8, -0.0, -0.0, -0.0, 1.2, 2.84, 3.72, 4.98, 6.0, 6.21, 5.84, 5.37, 4.47, 4.44, 4.44, 4.77, 4.77, 5.24, 5.24, 5.09, 5.09, 4.9, 5.31, 5.47, 6.13, 7.31, 8.91, 9.57, 9.82, 10.27, 10.22, 10.67, 11.12, 11.12, 10.67, 13.36, 11.84, 11.4, 11.84, 7.87, 10.84, 10.2, 10.66, 11.03, 10.4, 8.95, 9.06, 9.68, 9.83, 10.63, 10.01, 10.63, 11.28, 11.03, 10.04, 9.48, 8.93, 8.4, 8.73, 8.24, 7.59, 7.59, 6.83, 7.48, 7.48, 6.57, 5.76, 5.76, 6.57, 7.48, 8.4, 6.64, 1.84, 1.61, 3.28, 4.13, 4.87, 6.52, 7.49, 8.3, 8.64, 9.43, 10.52, 11.6, 10.49, 8.82, 6.32, 5.24, 4.74, 3.16, 1.58, 1.13, 3.22, 4.89, 4.89, 3.72, 2.98, 2.84, 1.98, -0.0, -2.4, -1.58, -0.0, 1.58, 2.4, 4.34, 5.4, 4.89, 4.74, 5.49, 4.47, 4.44, 4.88, 4.77, 4.77, 5.24, 5.24, 5.09, 5.09, 5.31, 5.31, 5.6, 5.89, 7.2, 8.72, 10.04, 11.11, 11.62, 12.02, 12.47, 12.84, 13.3, 13.3, 13.3, 13.3, 13.3, 13.3, 13.21, 11.86, 9.37, 10.73, 11.51, 11.18, 10.89, 10.14, 9.54, 9.49, 10.0, 10.04, 10.63, 10.87, 10.87, 10.23, 9.03, 9.04, 7.44, 6.95, 6.58, 6.3, 6.3, 5.59, 5.49, 5.38, 4.07, 4.08, 4.9, 6.63, 8.85, 9.24, 6.6, 2.41, 2.47, 4.13, 4.24, 4.87, 5.55, 6.79, 7.49, 7.51, 8.12, 8.93, 6.55, 3.13, -1.19, 0.0, 0.0, 0.0, -1.9, -0.0, 0.98, 3.35, 5.49, 5.77, 5.84, 3.49, 3.22, 2.73, -0.0, -1.58, -2.24, -1.79, 1.34, 1.34, 3.13, 3.82, 4.29, 4.54, 4.89, 4.47, 4.88, 4.88, 4.77, 4.8, 5.24, 5.24, 5.51, 5.57, 5.57, 5.81, 5.6, 6.1, 6.8, 7.81, 9.39, 10.58, 11.16, 11.62, 12.07, 12.5, 12.91, 13.36, 13.75, 13.75, 14.11, 14.11, 14.11, 13.57, 11.95, 10.28, 11.18, 12.07, 10.7, 10.14, 9.49, 8.91, 9.36, 9.36, 9.9, 10.85, 10.43, 10.6, 10.05, 8.63, 7.44, 4.83, 5.21, 5.59, 5.59, 5.59, 5.31, 4.37, 2.83, 4.2, 4.12, 6.58, 10.24, 12.42, 7.41, 3.42, 3.53, 4.58, 4.81, 4.33, 5.06, 5.4, 5.2, 7.19, 7.64, 7.78, 1.05, -6.71, -7.37, -6.0, -4.8, -3.58, -0.0, 1.14, 3.72, 4.87, 6.11, 7.07, 6.64, 4.11, 3.79, 3.79, 2.84, 1.58, -1.79, -2.8, -2.8, -2.24, 1.79, 1.58, 3.82, 4.4, 4.4, 4.88, 4.88, 4.88, 4.8, 4.8, 5.24, 5.09, 5.57, 5.57, 5.57, 5.81, 6.3, 6.51, 7.01, 7.51, 8.48, 9.57, 10.6, 11.16, 11.62, 12.06, 12.5, 12.47, 12.84, 13.3, 13.65, 13.57, 14.0, 14.0, 13.65, 12.5, 10.27, 11.57, 10.73, 10.22, 9.54, 9.63, 8.4, 10.6, 9.75, 10.45, 11.4, 10.66, 9.97, 9.03, 6.63, 3.8, 3.8, 5.31, 5.69, 5.69, 5.69, 4.83, 4.14, 4.14, 5.03, 7.28, 9.54, 11.52, 10.01, 4.8, 4.72, 5.0, 5.0, 5.54, 5.32, 5.54, 6.5, 6.87, 8.82, 8.18, 2.21, -6.88, -7.54, -5.36, -2.48, 0.96, 3.6, 4.96, 6.18, 7.06, 7.81, 8.14, 7.28, 4.85, 3.48, 3.48, 3.72, 2.21, -0.0, -3.58, -4.38, -3.58, -1.79, 1.79, 3.58, 3.58, 3.58, 4.89, 4.89, 4.89, 4.8, 4.8, 5.24, 5.09, 5.57, 5.57, 5.99, 5.99, 6.3, 6.72, 6.79, 7.69, 8.17, 8.64, 9.68, 10.67, 11.62, 12.07, 12.06, 12.5, 12.91, 13.3, 13.67, 14.11, 14.57, 14.13, 14.11, 13.75, 12.52, 10.22, 11.12, 10.28, 8.8, 9.49, 9.24, 10.91, 10.66, 10.25, 10.25, 10.66, 9.76, 8.0, 4.14, 2.54, 3.6, 5.03, 6.01, 6.63, 6.63, 6.01, 6.01, 5.69, 6.9, 8.06, 9.76, 11.03, 9.3, 6.83, 5.98, 6.3, 6.3, 6.64, 6.64, 5.53, 6.95, 7.9, 9.32, 8.14, 4.0, -4.89, -5.81, -1.05, 2.69, 5.14, 6.84, 8.22, 8.31, 9.05, 9.36, 9.49, 7.54, 4.47, 2.21, 3.39, 3.2, 1.6, -0.0, -3.2, -4.15, -1.2, 0.0, 0.0, 1.58, 1.79, 1.79, 4.89, 4.89, 4.89, 4.8, 5.24, 5.24, 5.09, 5.57, 5.57, 5.99, 6.04, 6.3, 6.36, 6.79, 7.26, 7.74, 8.33, 9.23, 9.77, 10.71, 11.62, 12.07, 12.5, 12.47, 12.84, 13.65, 14.19, 14.2, 14.26, 14.26, 14.29, 13.86, 12.06, 12.02, 8.94, 8.9, 9.24, 10.65, 10.2, 10.28, 10.28, 8.9, 9.76, 7.63, 6.63, 3.8, 3.8, 5.31, 6.01, 6.98, 7.44, 7.81, 7.21, 7.21, 7.81, 8.15, 9.04, 9.63, 9.6, 8.94, 8.15, 7.56, 7.81, 7.44, 8.0, 6.8, 7.28, 7.28, 8.4, 9.89, 9.83, 6.02, 3.58, 2.16, 5.29, 7.38, 8.95, 10.18, 10.63, 10.66, 10.96, 9.9, 9.06, 5.81, 2.23, 0.0, 2.68, -0.0, -0.0, -0.0, -3.58, -3.58, -2.21, 1.79, 2.24, 1.79, 1.34, 1.34, 4.89, 4.89, 5.33, 5.24, 5.24, 5.24, 5.09, 5.57, 5.57, 5.99, 6.04, 6.47, 6.36, 6.79, 6.94, 7.4, 8.3, 8.77, 8.87, 9.82, 11.18, 11.62, 11.62, 11.61, 11.95, 12.47, 12.95, 12.96, 13.86, 13.85, 13.85, 13.41, 12.06, 8.87, 6.24, 8.05, 8.49, 10.28, 10.73, 10.28, 9.83, 9.29, 8.17, 7.6, 6.32, 6.01, 5.72, 6.32, 7.44, 7.81, 7.81, 8.54, 8.54, 8.54, 8.18, 8.54, 8.54, 8.93, 8.37, 8.73, 8.73, 8.37, 8.15, 8.0, 8.6, 7.37, 7.37, 8.38, 8.94, 10.73, 12.07, 11.59, 12.3, 12.27, 12.22, 12.57, 12.52, 13.27, 12.86, 12.15, 11.09, 10.6, 8.99, 0.87, -1.19, -3.82, -4.82, -3.72, -2.23, -0.0, -0.0, -3.13, -2.4, -0.0, -0.0, -0.0, -0.0, -0.0, 5.33, 5.33, 5.33, 5.24, 5.24, 5.24, 5.09, 5.57, 5.57, 5.99, 6.04, 6.47, 6.51, 6.94, 6.94, 8.56, 7.26, 7.4, 7.97, 8.92, 10.71, 11.05, 10.14, 11.51, 12.04, 13.81, 8.87, 12.86, 13.32, 10.22, 10.27, 10.28, 9.83, 7.15, 3.99, 3.09, 3.87, 6.16, 9.7, 11.18, 10.28, 10.12, 9.63, 8.54, 6.95, 7.56, 7.56, 8.15, 8.15, 8.15, 8.54, 8.54, 8.54, 8.18, 7.56, 8.37, 8.0, 8.37, 8.15, 8.73, 8.93, 8.54, 9.04, 8.29, 8.44, 8.0, 8.05, 8.49, 9.39, 12.07, 13.8, 14.84, 17.39, 17.79, 16.85, 15.24, 14.58, 14.64, 14.15, 13.01, 10.89, 9.49, 7.54, 4.34, 0.0, -3.58, -4.4, -5.09, -3.93, -1.8, -0.0, -0.0, -0.96, -0.0, 0.95, 1.98, 1.99, 1.99, 5.36, 5.33, 5.33, 5.24, 5.24, 5.24, 5.24, 5.57, 5.57, 6.04, 6.04, 6.47, 6.51, 6.94, 6.79, 7.26, 7.21, 6.51, 8.33, 9.7, 11.8, 8.96, 8.3, 10.55, 11.79, 12.09, 11.84, 8.42, 8.47, 8.49, 8.48, 8.92, 8.42, 7.07, 4.47, 3.13, 3.53, 4.89, 6.24, 7.6, 8.86, 8.96, 8.79, 8.15, 6.79, 9.2, 9.04, 9.04, 8.63, 8.63, 8.63, 8.63, 7.81, 7.21, 6.73, 7.41, 8.15, 7.68, 8.42, 9.6, 9.63, 9.54, 9.11, 9.29, 8.0, 8.05, 8.49, 8.94, 9.83, 11.18, 13.38, 15.45, 17.59, 18.5, 17.72, 16.47, 16.09, 15.2, 13.41, 12.52, 11.15, 10.25, 8.9, 8.0, 6.2, 3.22, 0.87, -0.98, -5.2, -4.19, -1.99, -0.96, -0.89, -0.0, 0.89, 3.0, 2.99, 2.99, 5.36, 5.34, 5.34, 5.26, 5.26, 5.26, 5.7, 5.57, 5.57, 6.04, 6.04, 6.47, 6.51, 6.94, 6.94, 7.26, 7.26, 6.79, 6.79, 9.9, 10.85, 6.79, 6.3, 6.6, 7.81, 9.57, 9.77, 9.83, 9.82, 10.22, 10.14, 10.5, 10.5, 10.14, 8.42, 7.13, 6.26, 5.81, 6.71, 7.58, 8.33, 8.64, 8.79, 8.51, 7.23, 8.93, 9.04, 9.54, 9.11, 9.03, 8.6, 8.22, 7.44, 6.64, 6.3, 6.73, 7.68, 7.64, 9.1, 9.21, 9.54, 9.54, 9.32, 9.39, 8.49, 8.49, 8.49, 9.39, 10.28, 11.18, 12.49, 14.22, 16.47, 17.88, 17.42, 16.36, 14.56, 14.42, 13.01, 11.96, 11.14, 10.28, 9.35, 8.46, 8.77, 7.12, 5.49, 3.72, -0.0, -5.21, -4.54, -2.76, -1.99, -0.88, -0.0, 1.83, 2.53, 2.53, 5.36, 5.34, 5.34, 5.34, 5.7, 5.7, 5.7, 5.7, 5.57, 6.04, 6.04, 6.47, 6.51, 6.94, 6.94, 7.4, 7.26, 7.26, 8.0, 8.79, 9.43, 8.87, 8.03, 7.58, 8.42, 8.92, 9.83, 10.73, 11.12, 11.49, 11.95, 11.95, 11.95, 11.49, 11.05, 10.22, 9.37, 8.92, 8.47, 8.47, 8.42, 8.77, 8.64, 8.48, 7.48, 6.51, 9.63, 9.76, 9.32, 8.85, 8.41, 7.6, 6.01, 5.59, 5.72, 6.3, 6.53, 7.59, 8.73, 9.04, 8.56, 9.24, 9.35, 8.94, 8.94, 8.94, 8.9, 9.35, 9.39, 10.73, 11.35, 13.8, 15.31, 15.57, 10.18, 9.84, 10.15, 10.53, 10.48, 10.27, 10.41, 9.36, 9.39, 8.9, 8.29, 7.2, 6.18, 5.37, 3.11, -3.79, -5.2, -4.22, -3.58, -2.84, -1.13, -0.0, 1.05, 1.05, 5.36, 5.36, 5.34, 5.78, 5.7, 5.7, 5.7, 5.7, 5.7, 6.16, 6.04, 6.47, 6.51, 6.94, 6.94, 7.4, 7.26, 7.69, 8.0, 8.91, 9.57, 10.22, 10.28, 10.28, 10.28, 10.28, 10.28, 10.73, 11.16, 11.16, 11.57, 11.57, 11.57, 11.57, 11.57, 11.11, 10.22, 10.22, 9.82, 9.37, 9.37, 8.87, 8.77, 8.17, 7.31, 6.56, 9.54, 9.39, 8.94, 8.49, 7.63, 6.28, 5.31, 5.31, 5.59, 4.96, 5.76, 6.83, 8.73, 7.82, 8.56, 8.77, 8.9, 8.94, 8.94, 8.9, 8.77, 8.44, 8.44, 8.3, 10.05, 11.45, 14.09, 10.66, 6.26, 3.58, 3.72, 4.65, 5.59, 6.68, 7.6, 8.33, 8.49, 8.45, 7.63, 6.82, 6.18, 5.37, 4.42, 3.55, -2.0, -3.6, -3.6, -3.35, -1.8, -0.96, -0.0, -0.0, 5.36, 5.36, 5.36, 5.78, 5.78, 5.7, 5.7, 5.7, 6.14, 6.16, 6.16, 6.47, 6.51, 6.94, 6.94, 7.4, 7.4, 7.74, 8.17, 8.64, 9.11, 9.68, 10.22, 10.71, 11.16, 11.18, 11.18, 11.18, 11.18, 11.61, 11.61, 12.06, 12.02, 11.57, 11.57, 11.11, 10.67, 10.22, 10.27, 9.82, 9.37, 8.87, 8.33, 7.87, 7.26, 6.79, 9.76, 9.39, 8.85, 8.6, 8.0, 7.07, 6.28, 5.69, 5.03, 5.31, 5.24, 6.32, 7.9, 8.54, 7.35, 8.29, 8.33, 8.45, 8.94, 8.94, 8.05, 7.63, 6.45, 7.41, 8.8, 14.3, 14.99, 13.01, 10.6, 7.45, 6.26, 5.09, 3.47, 3.63, 5.43, 6.98, 7.6, 7.28, 7.2, 6.55, 5.84, 5.37, 4.42, 4.68, 2.8, 0.98, -0.0, -0.0, -0.81, -0.0, -0.0, -0.0, 5.36, 5.36, 5.81, 5.78, 5.78, 5.78, 5.7, 5.7, 6.14, 6.16, 6.16, 6.6, 6.51, 6.94, 6.94, 7.4, 7.4, 7.74, 8.17, 8.21, 8.64, 9.23, 9.68, 10.22, 10.67, 11.16, 11.18, 11.18, 11.18, 11.62, 11.62, 11.61, 11.61, 11.61, 11.61, 11.16, 10.71, 10.27, 10.27, 9.82, 9.32, 8.86, 8.42, 7.87, 7.26, 7.4, 8.03, 8.42, 8.77, 9.11, 8.3, 9.63, 7.6, 6.52, 5.37, 5.69, 5.69, 5.49, 6.98, 7.81, 8.4, 7.76, 8.56, 8.99, 9.24, 8.77, 7.2, 5.76, 5.9, 9.24, 11.14, 12.52, 15.6, 14.84, 14.84, 13.49, 11.53, 9.39, 8.05, 4.98, 5.09, 5.36, 6.02, 5.82, 6.18, 5.49, 5.84, 4.42, 5.24, 5.3, 6.01, 5.43, 4.81, 3.22, 1.63, 1.55, 1.55, 1.55, 5.36, 5.36, 5.81, 5.81, 5.78, 5.78, 5.7, 6.14, 6.16, 6.16, 6.16, 6.6, 6.61, 6.94, 6.94, 7.4, 7.4, 7.87, 7.87, 8.21, 8.77, 8.77, 9.23, 9.23, 9.77, 10.22, 10.71, 11.18, 11.18, 11.62, 11.62, 11.62, 11.62, 11.62, 11.16, 11.16, 10.71, 10.27, 10.27, 9.82, 9.37, 8.86, 8.41, 7.87, 7.87, 7.87, 8.42, 8.42, 8.87, 9.23, 9.11, 8.33, 9.54, 7.2, 6.28, 6.28, 5.37, 6.08, 6.28, 6.98, 8.18, 9.04, 8.56, 9.24, 9.24, 7.44, 5.9, 5.76, 8.43, 9.49, 10.25, 12.52, 12.52, 14.22, 14.99, 14.55, 13.34, 12.07, 10.7, 8.0, 4.92, 2.68, 2.4, 4.11, 4.81, 5.49, 5.37, 5.24, 6.01, 6.01, 7.06, 6.06, 5.37, 4.56, 3.91, 3.45, 3.6, 3.6, 5.36, 5.36, 5.81, 5.81, 5.78, 5.79, 6.23, 6.16, 6.16, 6.16, 6.16, 6.6, 6.61, 6.94, 6.94, 7.4, 7.4, 7.87, 7.87, 8.3, 8.33, 8.77, 8.77, 9.23, 9.32, 9.77, 10.27, 10.71, 10.73, 11.18, 11.62, 11.62, 11.62, 11.62, 11.62, 11.18, 10.73, 10.28, 9.83, 9.83, 9.37, 8.42, 7.87, 7.87, 7.87, 8.3, 8.42, 8.87, 8.92, 8.92, 8.87, 8.86, 8.03, 6.61, 7.12, 6.21, 6.9, 5.72, 5.49, 5.84, 8.4, 8.3, 10.41, 8.77, 9.04, 6.18, 6.15, 7.76, 8.95, 10.14, 10.7, 11.18, 12.07, 12.52, 13.31, 14.22, 14.28, 12.05, 9.97, 5.94, -0.0, -0.82, -0.0, 2.4, 4.43, 4.74, 5.24, 5.53, 6.01, 6.73, 6.68, 6.64, 6.32, 5.36, 4.6, 4.6, 4.96, 4.96, 5.81, 5.81, 5.81, 5.81, 5.79, 6.23, 6.23, 6.16, 6.16, 6.16, 6.16, 6.6, 6.61, 7.06, 6.94, 7.4, 7.4, 7.84, 7.87, 7.87, 8.33, 8.33, 8.77, 8.77, 8.79, 9.32, 9.77, 9.32, 9.82, 10.27, 10.73, 11.18, 11.62, 11.62, 11.18, 11.18, 10.73, 10.28, 9.83, 9.39, 8.92, 8.47, 7.4, 7.4, 7.97, 8.42, 8.94, 8.94, 8.94, 8.94, 8.94, 8.49, 8.05, 7.15, 5.81, 6.65, 7.06, 5.72, 4.74, 5.49, 7.2, 8.56, 9.68, 8.99, 7.06, 7.27, 7.68, 8.43, 9.24, 10.14, 11.18, 11.62, 11.59, 11.59, 12.49, 13.83, 14.28, 11.59, 7.12, 0.0, -4.98, -3.49, -1.08, 0.88, 3.22, 4.74, 4.95, 6.01, 6.01, 6.32, 6.64, 6.95, 6.95, 6.24, 6.24, 6.24, 5.94, 5.94, 5.81, 5.81, 5.81, 5.81, 5.79, 6.23, 6.23, 6.23, 6.16, 6.16, 6.16, 6.6, 6.61, 7.06, 6.94, 6.97, 7.4, 7.4, 7.87, 7.87, 8.3, 8.33, 8.33, 8.77, 8.77, 8.86, 8.86, 8.87, 9.37, 9.82, 10.27, 11.16, 11.16, 11.16, 11.16, 11.16, 10.71, 10.28, 9.83, 9.39, 8.94, 8.03, 7.06, 8.45, 8.77, 7.97, 8.94, 8.77, 8.21, 8.92, 8.92, 8.92, 8.49, 7.15, 5.79, 5.36, 7.01, 6.64, 5.58, 5.95, 7.12, 8.9, 8.77, 7.58, 6.53, 6.83, 8.38, 8.43, 9.49, 10.25, 11.18, 12.04, 11.96, 12.27, 13.01, 13.92, 13.65, 12.49, 8.9, 1.9, -5.29, -4.84, -3.49, -0.55, 1.84, 3.47, 4.74, 5.37, 6.45, 6.73, 7.06, 7.76, 7.68, 6.95, 6.95, 7.02, 7.02, 7.02, 5.81, 5.81, 5.81, 5.81, 6.26, 6.23, 6.23, 6.23, 6.23, 6.16, 6.16, 6.6, 6.61, 6.61, 7.06, 7.07, 7.4, 7.4, 7.87, 7.87, 7.87, 8.3, 8.3, 8.33, 8.42, 8.42, 8.42, 8.86, 8.87, 9.82, 10.22, 10.67, 11.11, 11.12, 11.11, 11.16, 10.71, 10.27, 9.83, 9.39, 8.94, 8.03, 7.13, 5.79, 5.78, 8.94, 10.7, 6.94, 5.31, 5.31, 6.04, 6.51, 8.41, 7.13, 5.78, 5.33, 4.92, 4.34, 5.6, 6.16, 6.94, 8.45, 7.76, 6.73, 6.64, 7.06, 7.76, 9.32, 8.99, 9.83, 11.14, 12.04, 12.94, 13.18, 13.23, 13.72, 13.92, 13.31, 12.96, 10.28, 3.58, -3.39, -4.4, -3.15, -0.57, 0.88, 3.22, 4.81, 5.72, 6.7, 7.28, 8.4, 8.24, 8.42, 7.69, 7.69, 7.69, 7.69, 5.81, 5.81, 5.81, 5.81, 6.26, 6.23, 6.23, 6.23, 6.23, 6.23, 6.16, 6.16, 6.61, 6.61, 7.06, 7.06, 7.51, 7.51, 7.4, 7.87, 7.87, 7.87, 8.3, 8.3, 8.33, 8.42, 8.42, 8.42, 8.87, 9.32, 10.14, 10.58, 10.6, 11.11, 11.11, 10.67, 10.66, 10.27, 9.37, 8.94, 8.49, 8.05, 7.15, 6.26, 5.36, 8.8, 10.45, 6.61, 3.98, 4.02, 4.92, 5.36, 5.36, 5.78, 4.89, 4.44, 4.47, 4.02, 3.98, 5.73, 7.1, 7.85, 7.76, 7.44, 7.82, 7.76, 7.35, 9.46, 9.97, 10.28, 9.83, 10.73, 12.52, 13.86, 14.66, 13.72, 13.23, 12.74, 13.31, 14.28, 12.07, 6.71, -0.0, -3.07, -2.84, -1.27, -0.0, 3.07, 5.43, 6.94, 7.89, 8.4, 8.91, 8.91, 8.24, 7.85, 7.67, 7.67, 5.81, 5.81, 5.81, 5.81, 6.26, 6.23, 6.23, 6.23, 6.23, 6.23, 6.16, 6.6, 6.6, 6.61, 7.06, 7.06, 7.07, 7.51, 7.51, 7.51, 7.87, 7.87, 7.87, 8.3, 8.3, 8.3, 7.97, 7.97, 10.14, 8.79, 9.57, 9.57, 10.14, 10.14, 10.58, 10.22, 10.22, 9.77, 9.37, 8.92, 8.49, 8.49, 7.6, 7.15, 6.68, 7.87, 9.23, 8.49, 7.58, 7.07, 7.13, 7.13, 6.26, 5.81, 4.92, 4.02, 4.02, 3.58, 3.58, 4.02, 6.71, 7.37, 7.76, 7.89, 7.76, 8.06, 8.0, 9.39, 9.83, 10.73, 9.83, 10.25, 12.45, 15.15, 16.09, 15.12, 12.58, 11.61, 12.27, 12.88, 13.41, 12.96, 9.83, 3.09, -0.8, -1.88, -0.65, 1.4, 5.6, 7.21, 8.36, 8.82, 8.82, 8.82, 8.4, 7.89, 7.6, 7.6, 5.81, 5.81, 5.81, 6.26, 6.26, 6.26, 6.23, 6.23, 6.23, 6.23, 6.16, 6.6, 6.6, 6.61, 6.61, 7.06, 7.07, 7.07, 7.51, 7.51, 7.87, 7.87, 7.87, 7.87, 8.3, 8.3, 7.87, 7.87, 8.33, 10.89, 8.64, 8.77, 8.79, 9.23, 9.68, 9.77, 9.32, 9.32, 8.92, 8.47, 8.49, 8.49, 8.05, 7.6, 7.58, 7.97, 8.86, 8.94, 8.94, 9.37, 9.37, 8.94, 8.49, 7.6, 6.71, 5.81, 5.36, 4.02, 3.58, 4.02, 4.44, 7.37, 8.06, 7.12, 7.63, 7.85, 8.0, 8.49, 9.83, 10.73, 10.14, 10.6, 11.59, 14.3, 17.88, 17.88, 13.86, 12.04, 11.6, 12.05, 12.52, 12.5, 12.5, 11.6, 6.23, 1.26, -0.0, 1.24, 5.94, 8.0, 8.9, 8.49, 8.49, 8.01, 7.56, 8.06, 6.94, 6.94, 5.81, 5.81, 5.81, 6.26, 6.26, 6.26, 6.23, 6.23, 6.23, 6.23, 6.23, 6.6, 6.6, 6.61, 6.61, 7.06, 7.06, 7.07, 7.51, 7.51, 7.4, 7.87, 7.87, 7.87, 7.87, 8.3, 7.87, 8.3, 8.64, 9.11, 8.79, 8.77, 8.87, 8.87, 9.32, 9.32, 8.87, 8.42, 8.47, 8.03, 8.03, 8.05, 8.05, 8.05, 8.05, 8.03, 8.42, 8.47, 8.47, 8.94, 9.39, 9.39, 8.94, 8.05, 7.6, 6.71, 6.26, 5.81, 4.47, 4.47, 7.01, 7.06, 7.06, 7.63, 7.12, 7.37, 7.85, 8.0, 9.39, 10.2, 9.7, 11.55, 12.07, 13.39, 16.99, 17.86, 16.01, 14.28, 12.94, 12.96, 12.96, 12.94, 12.5, 12.44, 12.05, 7.58, 3.58, 2.68, 6.26, 8.05, 8.49, 8.05, 7.15, 7.15, 6.71, 6.98, 6.79, 6.79, 5.81, 5.81, 5.81, 6.26, 6.26, 6.26, 6.23, 6.23, 6.23, 6.23, 6.23, 6.68, 6.6, 6.61, 6.61, 6.61, 7.06, 7.06, 7.51, 7.4, 7.4, 7.84, 7.87, 7.87, 7.87, 8.3, 8.3, 8.3, 8.21, 8.64, 8.79, 8.79, 9.32, 9.32, 9.32, 9.37, 8.92, 8.47, 8.03, 8.03, 7.6, 7.6, 7.6, 8.05, 8.05, 8.47, 8.42, 7.97, 7.97, 8.42, 8.92, 9.37, 8.92, 8.47, 7.58, 7.13, 6.68, 6.23, 5.81, 5.36, 4.88, 7.06, 7.06, 7.63, 7.63, 7.63, 7.37, 8.33, 8.77, 9.24, 9.7, 11.55, 12.96, 13.41, 15.2, 16.07, 16.37, 15.91, 15.12, 14.3, 13.41, 12.96, 12.52, 12.07, 11.62, 9.83, 8.49, 8.01, 7.55, 8.01, 8.05, 7.15, 6.71, 6.26, 6.26, 6.21, 6.51, 6.51, 5.81, 5.81, 6.26, 6.26, 6.26, 6.26, 6.23, 6.23, 6.23, 6.23, 6.23, 6.68, 6.6, 6.61, 6.61, 6.61, 7.06, 7.06, 7.07, 7.4, 7.4, 7.4, 7.87, 7.87, 7.87, 8.3, 8.3, 8.17, 8.21, 8.33, 8.77, 8.77, 8.79, 9.32, 9.32, 9.32, 9.37, 8.92, 8.03, 8.03, 7.58, 7.6, 7.6, 8.05, 8.47, 8.47, 8.42, 8.41, 7.87, 8.3, 8.77, 9.32, 9.32, 8.42, 7.97, 7.13, 6.68, 6.23, 6.23, 5.36, 5.36, 4.8, 7.5, 6.94, 7.42, 8.6, 7.85, 8.33, 8.9, 8.9, 10.73, 10.25, 13.36, 13.39, 14.3, 14.75, 15.62, 16.07, 16.54, 15.2, 13.84, 12.5, 11.6, 11.15, 10.73, 10.73, 10.28, 9.39, 8.9, 8.05, 7.6, 7.1, 6.64, 6.64, 6.21, 6.07, 6.07, 6.07, 5.81, 5.81, 6.26, 6.26, 6.26, 6.26, 6.23, 6.23, 6.23, 6.23, 6.23, 6.68, 6.68, 6.61, 6.61, 6.61, 7.06, 7.06, 6.94, 7.4, 7.4, 7.4, 7.87, 7.87, 7.87, 7.87, 8.3, 8.17, 8.17, 8.3, 8.33, 8.33, 8.77, 8.87, 9.32, 9.32, 9.32, 8.87, 8.47, 8.03, 7.58, 7.13, 7.15, 9.39, 8.03, 8.42, 8.77, 8.17, 7.74, 8.17, 8.21, 8.64, 8.79, 8.77, 7.87, 7.07, 6.61, 6.23, 5.78, 5.81, 5.36, 5.36, 7.6, 7.1, 7.42, 8.85, 8.0, 8.45, 8.94, 8.94, 9.39, 10.25, 12.47, 14.71, 14.3, 14.28, 14.28, 15.62, 16.52, 15.18, 13.84, 12.05, 11.6, 10.7, 10.73, 10.28, 9.83, 9.39, 9.39, 8.49, 8.01, 7.55, 7.55, 6.94, 6.88, 6.28, 6.28, 5.75, 5.81, 5.81, 6.26, 6.26, 6.26, 6.26, 6.23, 6.23, 6.23, 6.23, 6.23, 6.68, 6.6, 6.61, 6.61, 6.61, 6.61, 7.06, 6.94, 6.97, 7.4, 7.4, 7.84, 7.87, 7.87, 7.87, 7.87, 8.3, 8.3, 8.3, 8.3, 8.3, 8.33, 8.33, 8.87, 8.87, 9.32, 8.87, 8.42, 7.97, 7.52, 7.13, 6.71, 8.49, 8.05, 8.87, 9.11, 8.42, 7.71, 7.51, 8.0, 8.48, 8.64, 8.64, 7.87, 7.4, 6.61, 6.6, 5.79, 5.78, 5.36, 4.92, 7.6, 6.65, 7.54, 8.49, 8.49, 8.05, 8.49, 8.49, 8.94, 10.2, 12.07, 13.83, 15.62, 14.3, 13.76, 14.55, 15.05, 15.13, 13.84, 12.96, 12.5, 11.6, 11.18, 10.73, 10.28, 9.83, 9.39, 9.35, 8.9, 8.45, 8.01, 7.42, 6.94, 6.51, 6.51, 6.28, 5.81, 5.81, 6.26, 6.26, 6.26, 6.23, 6.23, 6.23, 6.23, 6.23, 6.23, 6.68, 6.6, 6.61, 6.61, 6.61, 6.61, 6.61, 6.94, 6.97, 7.4, 7.4, 7.4, 7.84, 7.87, 7.87, 7.87, 7.87, 7.87, 7.87, 7.87, 7.87, 8.3, 8.33, 8.33, 8.77, 8.87, 8.86, 8.42, 7.97, 7.97, 7.51, 6.16, 5.7, 8.8, 9.23, 8.96, 7.31, 6.41, 6.8, 7.31, 8.0, 8.48, 8.64, 8.17, 7.4, 6.94, 6.16, 6.16, 5.78, 5.36, 5.36, 5.36, 7.6, 7.6, 8.05, 7.6, 8.05, 8.0, 8.45, 8.9, 8.9, 11.62, 12.96, 15.02, 14.22, 13.86, 13.65, 13.65, 13.23, 13.23, 13.33, 12.88, 11.99, 11.53, 11.08, 10.26, 10.28, 9.83, 9.39, 9.39, 8.94, 8.45, 8.0, 7.55, 7.54, 6.21, 6.51, 6.26, 6.26, 6.26, 6.26, 6.26, 6.23, 6.23, 6.23, 6.23, 6.23, 6.23, 6.68, 6.6, 6.61, 6.61, 6.61, 6.61, 6.61, 6.94, 6.94, 7.4, 7.4, 7.4, 7.84, 7.84, 7.87, 7.87, 7.87, 7.87, 7.87, 7.87, 7.87, 7.87, 8.3, 8.33, 8.33, 8.77, 8.77, 8.33, 8.3, 7.87, 7.4, 6.51, 5.99, 6.4, 10.43, 8.0, 5.81, 4.55, 5.08, 5.75, 6.8, 7.51, 8.0, 8.0, 7.69, 6.79, 6.47, 6.16, 5.78, 5.34, 4.92, 7.15, 7.15, 7.6, 7.5, 7.6, 8.49, 7.55, 7.85, 8.45, 8.94, 10.73, 11.18, 12.45, 15.02, 14.66, 13.86, 11.96, 10.89, 10.8, 11.71, 11.71, 11.71, 11.23, 10.8, 10.49, 10.16, 9.7, 9.8, 9.8, 9.39, 8.94, 8.49, 8.0, 7.55, 7.1, 7.1, 6.26, 6.26, 6.26, 6.26, 6.26, 6.23, 6.23, 6.23, 6.23, 6.23, 6.23, 6.23, 6.6, 6.6, 6.6, 6.6, 6.61, 6.61, 6.61, 6.94, 6.97, 7.4, 7.4, 7.4, 7.4, 7.84, 7.84, 7.84, 7.84, 7.87, 7.87, 7.87, 7.87, 7.87, 8.3, 8.33, 8.77, 8.77, 8.33, 8.3, 7.87, 7.4, 6.79, 6.79, 7.31, 8.51, 8.21, 6.61, 5.24, 5.09, 5.31, 5.81, 6.51, 7.01, 7.51, 7.09, 6.79, 6.36, 6.47, 6.16, 5.78, 5.33, 4.92, 7.6, 7.01, 7.5, 7.21, 7.94, 6.94, 7.85, 8.45, 8.49, 10.2, 9.8, 11.57, 13.41, 14.67, 15.56, 12.94, 10.73, 9.81, 10.62, 10.63, 10.49, 10.32, 10.25, 9.83, 9.75, 9.54, 9.54, 9.7, 9.36, 9.39, 8.94, 7.55, 6.94, 6.94, 6.94, 6.26, 6.26, 6.26, 6.26, 6.26, 6.23, 6.23, 6.23, 6.23, 6.23, 6.23, 6.23, 6.16, 6.6, 6.6, 6.6, 6.61, 6.61, 6.51, 6.94, 6.94, 7.4, 7.4, 7.4, 7.4, 7.4, 7.4, 7.4, 7.84, 7.84, 7.84, 7.84, 7.87, 7.87, 8.3, 8.17, 8.21, 8.64, 8.21, 8.17, 7.74, 7.26, 7.26, 7.21, 7.51, 8.0, 7.87, 7.51, 7.13, 6.68, 6.16, 5.99, 6.04, 6.47, 6.36, 6.79, 6.6, 6.79, 6.47, 6.04, 6.14, 5.78, 5.33, 7.6, 7.01, 7.06, 7.06, 7.63, 6.7, 7.42, 8.05, 8.45, 9.24, 10.14, 11.05, 11.95, 13.86, 15.45, 15.31, 13.21, 12.41, 11.6, 11.6, 11.18, 11.18, 10.7, 10.16, 10.16, 9.54, 9.54, 9.7, 9.26, 8.9, 8.05, 7.55, 7.1, 7.1, 7.1, 5.81, 5.81, 6.26, 6.26, 6.26, 6.23, 6.23, 6.23, 6.23, 6.23, 6.23, 6.23, 6.16, 6.16, 6.6, 6.6, 6.61, 6.61, 6.51, 6.94, 6.94, 6.94, 7.4, 7.4, 7.4, 7.4, 7.4, 7.4, 7.4, 7.4, 7.84, 7.69, 7.74, 7.74, 8.17, 8.17, 8.21, 8.21, 8.17, 8.17, 7.74, 7.69, 7.26, 7.26, 7.09, 7.69, 7.69, 7.4, 7.51, 7.51, 7.07, 6.61, 6.6, 6.16, 6.16, 6.3, 6.72, 6.79, 6.3, 6.47, 6.16, 5.7, 5.26, 5.36, 7.5, 7.06, 7.06, 6.45, 6.94, 7.1, 8.49, 8.0, 9.24, 10.14, 10.6, 11.15, 12.07, 14.22, 15.31, 15.13, 14.4, 13.56, 13.33, 12.94, 12.52, 11.62, 11.18, 10.25, 9.81, 9.36, 9.76, 8.01, 8.05, 7.6, 7.15, 6.65, 6.65, 6.65, 5.81, 5.81, 6.26, 6.26, 6.23, 6.23, 6.23, 6.23, 6.23, 6.23, 6.23, 6.23, 6.16, 6.16, 6.6, 6.6, 6.6, 6.61, 6.51, 6.94, 6.94, 6.94, 6.94, 7.4, 7.4, 7.4, 7.4, 7.4, 7.26, 7.26, 7.69, 7.69, 7.69, 7.74, 7.74, 8.17, 8.17, 8.0, 8.0, 8.0, 7.51, 7.51, 7.09, 7.09, 7.26, 7.26, 7.26, 7.26, 7.26, 7.4, 7.4, 7.51, 7.06, 6.61, 6.23, 6.16, 6.04, 6.3, 6.3, 6.04, 6.16, 5.7, 5.34, 5.36, 4.89, 7.5, 7.6, 6.71, 7.15, 7.6, 8.0, 8.33, 8.77, 9.68, 10.25, 10.73, 11.62, 12.96, 13.76, 14.4, 14.64, 15.31, 14.66, 13.39, 12.52, 12.07, 11.18, 10.7, 10.25, 10.28, 8.85, 7.55, 7.1, 6.71, 6.71, 6.71, 6.71, 6.71, 5.81, 5.81, 6.26, 6.26, 6.23, 6.23, 6.23, 6.23, 6.23, 6.23, 6.23, 6.23, 6.16, 6.16, 6.6, 6.6, 6.6, 6.61, 6.51, 6.51, 6.94, 6.94, 6.94, 6.94, 7.4, 7.4, 7.4, 7.26, 7.26, 7.26, 7.69, 7.69, 7.69, 7.74, 7.58, 8.0, 8.0, 8.0, 8.0, 8.0, 7.51, 7.51, 7.01, 7.01, 7.21, 7.21, 7.21, 7.21, 6.79, 7.21, 7.26, 7.4, 6.94, 7.06, 6.23, 6.16, 6.14, 5.99, 5.99, 5.57, 5.7, 5.78, 5.33, 4.92, 4.44, 7.6, 7.6, 7.6, 7.5, 7.55, 8.0, 8.44, 8.9, 9.35, 10.25, 10.73, 11.18, 12.52, 12.94, 12.74, 14.09, 15.75, 15.56, 13.84, 12.96, 12.05, 11.53, 10.63, 10.14, 8.9, 8.45, 7.55, 7.1, 6.26, 6.26, 6.26, 6.26, 6.26, 5.81, 5.81, 5.81, 6.26, 6.23, 6.23, 6.23, 6.23, 6.23, 6.23, 6.23, 6.23, 6.16, 6.16, 6.16, 6.6, 6.6, 6.61, 6.51, 6.51, 6.51, 6.94, 6.94, 6.94, 6.94, 7.4, 7.26, 7.26, 7.26, 7.26, 7.69, 7.69, 7.51, 7.51, 7.58, 8.0, 8.0, 8.0, 8.0, 7.58, 7.51, 7.09, 7.01, 7.01, 7.21, 7.21, 7.21, 7.21, 6.79, 6.79, 6.79, 6.94, 6.94, 6.94, 6.61, 6.6, 6.16, 6.16, 5.7, 5.7, 5.26, 5.33, 4.89, 4.47, 4.02, 6.71, 7.15, 7.6, 7.6, 7.6, 8.05, 8.01, 8.9, 9.35, 9.8, 10.25, 10.73, 11.62, 12.04, 12.49, 13.31, 15.11, 15.45, 14.68, 13.41, 11.99, 11.23, 10.32, 8.91, 8.67, 8.33, 7.55, 6.65, 6.26, 5.81, 6.26, 6.26, 6.26, 5.81, 5.81, 5.81, 5.81, 6.23, 6.23, 6.23, 6.23, 6.23, 6.23, 6.23, 6.16, 6.16, 6.16, 6.16, 6.6, 6.6, 6.6, 6.47, 6.51, 6.51, 6.94, 6.94, 6.94, 6.94, 7.21, 7.26, 7.26, 7.26, 7.26, 7.69, 7.51, 7.51, 7.51, 7.51, 7.51, 7.58, 7.58, 7.51, 7.51, 7.51, 7.01, 7.01, 6.6, 6.79, 6.79, 7.21, 6.79, 6.79, 6.72, 6.3, 6.3, 6.51, 6.51, 6.61, 6.61, 6.61, 6.16, 6.16, 5.7, 5.24, 5.33, 4.88, 4.44, 3.98, 5.73, 6.26, 6.71, 7.15, 7.55, 8.45, 8.77, 8.9, 9.35, 9.35, 9.8, 10.28, 10.73, 11.18, 11.59, 12.49, 13.39, 14.55, 15.01, 13.84, 11.6, 9.2, 8.88, 8.63, 8.14, 7.47, 7.12, 6.45, 5.73, 5.81, 6.26, 6.26, 6.26, 5.81, 5.81, 5.81, 5.81, 6.23, 6.23, 6.23, 6.23, 6.23, 6.23, 6.23, 6.16, 6.16, 6.16, 6.16, 6.6, 6.6, 6.6, 6.47, 6.47, 6.47, 6.51, 6.94, 6.94, 6.79, 7.21, 7.26, 7.26, 7.26, 7.26, 7.51, 7.51, 7.51, 7.51, 7.51, 7.51, 7.51, 7.51, 7.51, 7.51, 7.09, 7.01, 6.6, 6.6, 6.6, 6.6, 6.6, 6.79, 6.79, 6.3, 6.3, 6.3, 6.47, 6.47, 6.51, 6.51, 6.61, 6.61, 6.16, 5.7, 5.7, 5.24, 4.77, 4.34, 4.3, 5.73, 5.81, 6.26, 6.71, 7.37, 7.63, 8.14, 8.3, 8.77, 9.24, 9.35, 9.8, 9.83, 10.73, 11.18, 12.07, 12.49, 12.86, 14.66, 14.73, 9.26, 7.6, 7.06, 6.68, 7.06, 6.7, 6.07, 5.75, 5.51, 6.17, 6.2, 6.2, 6.2, 5.81, 5.81, 5.81, 5.79, 6.23, 6.23, 6.23, 6.23, 6.23, 6.23, 6.23, 6.16, 6.16, 6.16, 6.16, 6.6, 6.6, 6.6, 6.47, 6.47, 6.47, 6.47, 6.94, 6.79, 6.79, 6.79, 7.21, 7.26, 7.26, 7.09, 7.09, 7.09, 7.51, 7.51, 7.51, 7.51, 7.51, 7.51, 7.51, 7.51, 7.01, 7.01, 6.6, 6.6, 6.6, 6.6, 6.6, 6.79, 6.72, 6.3, 6.3, 5.88, 5.88, 6.47, 6.47, 6.94, 6.94, 6.51, 6.47, 6.04, 5.57, 5.51, 5.09, 4.6, 4.11, 4.11, 5.73, 5.73, 6.2, 7.1, 7.37, 7.35, 7.82, 7.82, 8.56, 9.24, 9.35, 9.83, 10.28, 11.18, 11.62, 11.62, 12.52, 14.3, 12.07, 8.94, 6.51, 5.09, 5.37, 6.06, 5.37, 4.74, 4.89, 4.98, 5.2, 5.51, 5.51, 5.51, 5.81, 5.81, 5.81, 6.23, 6.23, 6.23, 6.23, 5.79, 6.23, 6.23, 6.16, 6.16, 6.16, 6.16, 6.16, 6.6, 6.6, 6.47, 6.47, 6.47, 6.47, 6.47, 6.36, 6.79, 6.79, 6.79, 7.21, 7.21, 7.21, 7.09, 7.09, 7.09, 7.09, 7.09, 7.09, 7.09, 7.09, 7.51, 7.09, 7.09, 7.01, 6.6, 6.51, 6.51, 6.51, 6.6, 6.6, 6.72, 6.3, 6.3, 5.81, 5.81, 5.88, 6.47, 6.47, 6.94, 6.94, 6.94, 6.47, 6.47, 5.81, 5.4, 5.31, 4.8, 4.4, 4.27, 5.6, 5.94, 6.2, 6.71, 6.94, 7.63, 7.42, 6.79, 8.0, 8.72, 9.24, 9.79, 10.25, 10.7, 11.15, 11.62, 12.07, 14.73, 12.5, 9.83, 7.15, 5.31, 4.6, 4.43, 4.43, 3.72, 4.11, 3.79, 4.29, 4.47, 4.47, 4.47, 5.81, 5.81, 5.81, 6.23, 6.23, 6.23, 6.23, 6.23, 6.23, 6.23, 6.16, 6.16, 6.16, 6.16, 6.16, 6.6, 6.6, 6.47, 6.47, 6.47, 6.47, 6.47, 6.3, 6.79, 6.79, 6.79, 6.79, 7.21, 7.21, 7.01, 7.01, 7.01, 7.01, 7.09, 7.09, 7.09, 7.09, 7.09, 7.09, 7.01, 6.6, 6.6, 6.51, 6.51, 6.51, 6.51, 6.51, 6.3, 6.3, 5.81, 5.81, 5.81, 6.3, 6.3, 6.3, 6.79, 6.79, 6.79, 6.79, 6.3, 6.3, 6.0, 5.6, 5.08, 4.55, 4.55, 5.31, 5.24, 6.71, 6.71, 7.55, 7.85, 7.63, 7.12, 6.82, 7.82, 8.72, 9.24, 9.97, 10.41, 10.6, 11.05, 13.83, 14.73, 12.43, 10.18, 8.46, 5.81, 3.58, 2.98, 2.68, 2.68, 2.2, 3.16, 3.39, 2.8, 2.8, 2.8, 5.81, 5.81, 6.26, 6.23, 6.23, 6.23, 6.23, 6.23, 6.23, 6.16, 6.16, 6.16, 6.16, 6.16, 6.16, 6.16, 6.47, 6.47, 6.47, 6.47, 6.47, 6.47, 6.3, 6.3, 6.79, 6.79, 6.79, 6.79, 7.21, 7.21, 7.01, 7.01, 7.01, 7.01, 7.01, 7.01, 7.09, 7.09, 7.01, 7.01, 6.6, 6.51, 6.51, 6.51, 6.51, 6.1, 6.3, 6.3, 5.81, 5.81, 5.81, 5.6, 6.1, 6.1, 6.51, 6.79, 6.79, 6.79, 6.79, 6.6, 6.51, 6.1, 6.0, 5.47, 5.08, 4.65, 5.08, 5.31, 6.64, 7.1, 7.55, 8.0, 8.0, 8.0, 7.85, 8.06, 7.81, 8.8, 9.66, 9.75, 9.97, 10.41, 12.94, 14.3, 12.49, 9.7, 7.42, 4.82, 2.68, 2.68, 2.21, 1.98, 2.84, 3.2, 2.68, 2.4, 2.4, 2.4, 5.81, 5.81, 6.23, 6.23, 6.23, 6.23, 6.23, 6.23, 6.16, 6.16, 6.16, 6.16, 6.16, 6.16, 6.16, 6.04, 6.47, 6.47, 6.47, 6.47, 6.47, 6.47, 6.3, 6.3, 6.3, 6.79, 6.79, 6.79, 6.79, 6.79, 6.79, 7.01, 7.01, 7.01, 7.01, 7.01, 7.01, 7.01, 7.01, 6.6, 6.6, 6.51, 6.51, 6.1, 6.1, 6.1, 6.3, 5.81, 5.81, 5.81, 5.6, 5.6, 5.75, 6.28, 6.51, 6.51, 6.6, 6.6, 7.01, 6.6, 6.51, 6.51, 6.1, 5.75, 5.21, 5.21, 5.21, 5.08, 5.31, 6.94, 7.37, 7.55, 8.0, 8.45, 8.49, 8.9, 9.06, 8.8, 9.36, 9.66, 9.66, 10.45, 11.95, 13.41, 12.07, 8.33, 4.15, 1.58, 1.79, 2.24, 2.97, 2.6, 2.6, 2.8, 2.68, 2.68, 2.68, 2.68, 5.81, 5.81, 6.23, 6.23, 6.23, 6.23, 6.23, 6.23, 6.16, 6.16, 6.16, 6.16, 6.16, 6.16, 6.04, 6.04, 6.04, 6.47, 6.47, 6.47, 6.47, 6.3, 6.3, 6.3, 6.3, 6.72, 6.79, 6.79, 6.79, 6.79, 6.79, 6.79, 6.6, 7.01, 7.01, 7.01, 7.01, 7.01, 7.01, 6.6, 6.6, 6.51, 6.1, 6.1, 6.1, 6.3, 6.23, 5.81, 5.81, 5.6, 5.6, 5.75, 5.75, 5.75, 5.75, 6.28, 6.28, 6.28, 6.8, 6.28, 6.28, 6.51, 6.51, 5.75, 5.75, 5.21, 5.21, 5.21, 5.21, 6.21, 6.7, 7.12, 7.42, 7.42, 7.85, 8.77, 9.06, 9.24, 9.36, 9.66, 9.97, 9.97, 11.05, 12.49, 11.62, 7.1, 1.2, -1.58, 0.0, 1.9, 2.6, 2.98, 2.98, 3.39, 3.13, 2.68, 2.68, 2.68, 5.79, 5.79, 5.79, 6.23, 6.23, 6.23, 6.23, 6.16, 6.16, 6.16, 6.16, 6.16, 6.16, 6.04, 6.04, 6.04, 6.04, 6.04, 6.04, 6.04, 6.04, 6.3, 6.3, 6.3, 6.3, 6.3, 6.72, 6.72, 6.79, 6.79, 6.79, 6.6, 6.6, 6.6, 7.01, 7.01, 7.01, 7.01, 6.6, 6.6, 6.51, 6.1, 6.1, 6.1, 6.1, 6.1, 5.81, 5.81, 5.81, 5.6, 5.6, 5.75, 5.75, 5.75, 5.75, 6.13, 6.28, 6.28, 6.28, 6.28, 6.28, 6.28, 6.28, 5.75, 5.75, 5.75, 5.29, 5.29, 4.94, 6.18, 6.6, 7.12, 6.7, 6.94, 7.63, 8.14, 8.72, 8.72, 9.24, 9.24, 9.75, 9.97, 10.89, 11.96, 11.59, 8.0, 1.4, -1.9, 0.0, 1.2, 2.21, 2.98, 2.98, 3.39, 3.13, 2.68, 2.68, 2.68, 5.78, 5.78, 5.78, 5.79, 6.23, 6.23, 6.16, 6.16, 6.16, 6.16, 6.16, 6.16, 6.16, 6.04, 6.04, 6.04, 6.04, 6.04, 6.04, 6.04, 6.04, 5.88, 6.3, 6.3, 6.3, 6.3, 6.3, 6.3, 6.72, 6.72, 6.79, 6.6, 6.6, 6.6, 7.01, 7.01, 7.01, 7.01, 6.6, 6.6, 6.51, 6.1, 6.1, 6.1, 6.1, 6.0, 5.81, 5.81, 5.6, 5.47, 5.75, 5.75, 5.49, 5.49, 5.75, 5.75, 6.28, 6.28, 6.28, 6.28, 6.28, 6.28, 6.13, 6.13, 5.49, 5.49, 5.49, 5.29, 5.29, 5.86, 5.75, 7.12, 6.94, 7.1, 7.42, 8.33, 8.56, 8.99, 8.72, 9.24, 9.66, 10.18, 10.68, 11.8, 11.95, 9.24, 4.4, -0.99, 0.0, 0.0, 1.98, 2.84, 2.84, 3.35, 3.39, 2.68, 2.68, 2.68, 5.78, 5.78, 5.78, 5.78, 6.23, 6.16, 6.16, 6.16, 6.16, 6.16, 6.16, 6.04, 6.04, 6.04, 6.04, 6.04, 6.04, 6.04, 6.04, 6.04, 5.88, 5.88, 5.88, 5.88, 6.3, 6.3, 6.3, 6.3, 6.3, 6.72, 6.72, 6.6, 6.6, 6.6, 6.6, 7.01, 7.01, 6.6, 6.6, 6.51, 6.51, 6.1, 6.1, 6.1, 6.0, 5.6, 5.6, 5.81, 5.47, 5.21, 5.75, 5.49, 5.29, 5.49, 5.49, 5.75, 6.13, 6.03, 6.03, 6.41, 6.03, 6.03, 5.86, 5.86, 5.86, 5.86, 5.86, 5.59, 5.59, 5.59, 6.13, 7.63, 6.65, 7.6, 6.71, 8.0, 8.33, 8.99, 8.82, 9.24, 9.75, 10.18, 10.68, 11.18, 11.36, 10.14, 6.57, 1.27, -0.87, 0.0, 0.79, 1.66, 2.68, 2.84, 2.98, 2.4, 2.4, 2.4, 5.78, 5.78, 5.78, 5.78, 5.7, 6.16, 6.16, 6.16, 6.16, 6.16, 6.04, 6.04, 6.04, 6.04, 6.04, 6.04, 6.04, 5.99, 5.99, 5.81, 5.81, 5.81, 5.81, 5.81, 6.3, 6.3, 6.3, 6.3, 6.3, 6.3, 6.72, 6.51, 6.6, 6.6, 6.6, 6.6, 6.6, 6.6, 6.6, 6.51, 6.1, 6.1, 6.1, 6.0, 6.0, 5.6, 5.6, 5.6, 5.47, 5.21, 5.29, 5.29, 5.29, 5.49, 5.49, 5.49, 5.86, 6.03, 6.41, 6.41, 6.41, 6.41, 5.86, 5.86, 5.86, 5.59, 5.59, 5.59, 5.59, 5.59, 5.86, 6.0, 5.09, 7.15, 6.26, 6.94, 8.06, 8.72, 8.82, 8.95, 9.36, 9.9, 10.43, 11.11, 10.89, 10.41, 8.56, 3.79, 0.0, 0.0, 0.0, 0.96, 1.66, 1.66, 2.84, 2.53, 2.53, 2.53, 5.78, 5.78, 5.78, 5.78, 5.7, 6.16, 6.16, 6.16, 6.16, 6.16, 6.04, 6.04, 6.04, 6.04, 6.04, 6.04, 6.04, 5.99, 5.99, 5.81, 5.81, 5.81, 5.81, 5.81, 6.3, 6.3, 6.3, 6.3, 6.3, 6.3, 6.72, 6.51, 6.6, 6.6, 6.6, 6.6, 6.6, 6.6, 6.6, 6.51, 6.1, 6.1, 6.1, 6.0, 6.0, 5.6, 5.6, 5.6, 5.47, 5.21, 5.29, 5.29, 5.29, 5.49, 5.49, 5.49, 5.86, 6.03, 6.41, 6.41, 6.41, 6.41, 5.86, 5.86, 5.86, 5.59, 5.59, 5.59, 5.59, 5.59, 5.86, 6.0, 5.09, 7.15, 6.26, 6.94, 8.56, 8.72, 8.82, 8.95, 9.36, 9.9, 10.32, 10.43, 10.68, 9.97, 9.06, 6.21, 1.08, -1.08, 0.0, 0.0, 0.0, 0.96, 1.83, 2.0, 2.0, 2.0]}, {"header": {"dx": 0.06612293990616946, "dy": 0.0552356325346848, "nx": 98, "ny": 59, "la1": 35.046912555036876, "la2": 31.78801023549047, "lo1": -121.43107172385933, "lo2": -114.95102361305473, "refTime": "2026040922", "parameterCategory": 1, "parameterNumber": 3}, "data": [0.0, 0.0, 0.0, 0.0, 0.0, 0.0, -0.61, -0.55, -0.55, 0.0, 0.0, 0.0, 0.0, -0.89, -0.84, 0.0, 0.0, 0.0, 0.0, 0.0, 0.0, 0.0, 0.89, 0.0, 0.0, 0.0, -0.81, -0.85, -3.72, -5.81, -5.26, -4.92, -4.92, -4.92, -4.92, -5.26, -5.73, -5.4, -5.37, -5.24, -4.74, -4.87, -5.59, -5.46, -4.23, -4.25, -3.53, -2.51, -1.7, -0.86, -0.86, 0.0, 0.0, 0.0, 0.0, 0.0, 0.78, 0.81, 1.61, 1.61, 1.61, 2.39, 2.39, 3.34, 3.14, 3.25, 3.36, 3.36, 3.36, 3.25, 3.34, 3.23, 3.32, 3.32, 3.32, 2.44, 2.44, 1.52, 1.63, 0.82, 0.85, 0.89, 0.0, 0.0, 0.0, 0.0, -1.05, -1.05, 0.0, 0.0, 0.0, 0.0, 0.89, 3.77, 6.82, 7.76, 7.2, 6.45, 0.0, 0.0, 0.0, 0.0, -0.54, -0.54, -0.61, -0.55, -0.55, 0.0, 0.0, 0.0, -0.95, -1.55, -1.2, -1.2, -0.84, 0.0, 0.0, 0.0, 0.0, 0.0, 1.4, 0.0, 0.0, 0.0, 0.0, -0.89, -2.99, -5.51, -5.36, -5.36, -5.36, -5.36, -5.81, -5.73, -6.2, -6.17, -5.94, -5.58, -5.84, -6.98, -6.64, -5.21, -5.29, -4.25, -2.49, -1.69, -0.85, -0.85, 0.0, 0.0, 0.0, 0.0, 0.74, 0.83, 1.71, 1.6, 1.65, 1.65, 2.45, 2.45, 2.37, 2.45, 2.45, 2.39, 2.47, 2.47, 2.47, 2.39, 2.54, 2.45, 2.53, 1.71, 1.71, 1.64, 0.83, 1.52, 1.63, 0.82, 0.85, 0.89, 0.0, 0.0, 0.0, 0.0, -1.05, -1.05, 0.0, 0.0, 0.0, 0.0, 0.89, 3.77, 6.82, 7.76, 7.2, 6.45, 0.0, 0.0, 0.0, -0.54, -0.54, -0.54, -0.61, -0.55, -0.55, -0.57, 0.0, 0.0, -0.95, -1.73, -1.55, -1.75, -1.75, -1.67, -0.94, 0.0, 0.0, 0.0, 0.0, 1.4, 1.26, 0.0, 0.0, -0.89, -2.54, -5.49, -6.17, -5.73, -5.81, -6.26, -5.36, -6.71, -5.81, -6.2, -6.45, -6.57, -6.82, -6.39, -6.18, -5.76, -4.2, -3.49, -1.68, -0.85, 0.0, 0.0, 0.89, 1.62, 2.49, 2.6, 2.95, 2.61, 3.19, 2.53, 2.53, 2.53, 2.53, 2.53, 2.44, 2.53, 2.37, 1.65, 1.65, 1.71, 1.71, 1.65, 1.65, 1.6, 0.8, 0.86, 0.0, 0.0, 0.0, 0.86, 0.75, 0.82, 0.0, 0.0, 0.0, 0.0, 0.0, 0.0, -1.6, -1.98, -1.84, -1.96, -0.89, 0.0, 1.73, 5.37, 7.2, 6.82, 6.11, 6.01, 0.0, 0.0, -0.54, -0.54, -0.54, -0.54, -0.61, -0.55, -0.55, -0.57, -0.51, -0.57, -0.89, -1.73, -1.65, -2.54, -2.69, -2.83, -1.67, -0.85, -0.89, 0.0, 0.0, 0.0, 0.85, 0.0, 0.0, -0.89, -2.69, -5.69, -6.8, -6.57, -5.2, -5.09, -4.66, -5.36, -5.81, -7.15, -7.54, -7.63, -7.82, -7.81, -6.01, -3.6, -1.75, 0.0, 0.0, 0.89, 2.7, 3.36, 3.78, 4.13, 5.0, 5.0, 4.87, 4.17, 4.06, 4.06, 3.32, 3.32, 3.32, 3.19, 2.44, 2.44, 1.71, 1.71, 1.65, 1.5, 1.41, 1.5, 1.65, 0.86, 0.0, 0.0, 0.0, 0.0, 0.0, 0.0, 0.0, 0.0, 0.0, 0.0, 0.0, 0.0, 0.0, -0.89, -1.96, -2.64, -2.64, -1.84, -1.01, 0.0, 2.64, 6.18, 6.82, 6.55, 5.24, 5.53, 0.0, 0.0, -0.61, -0.54, -0.54, -0.54, -0.61, -0.55, -0.55, -0.57, -0.59, -0.57, -1.03, -1.96, -1.84, -2.54, -2.99, -3.45, -3.63, -2.69, -1.33, -1.4, 0.0, 0.0, 0.0, 0.0, 0.0, 0.0, -1.58, -4.58, -6.55, -6.18, -5.06, -3.72, -3.0, -5.58, -6.07, -6.07, -7.1, -7.63, -7.2, -5.49, -2.6, 0.0, 1.84, 3.45, 4.2, 5.06, 5.76, 6.0, 5.63, 5.86, 5.86, 5.72, 5.72, 4.75, 4.75, 4.21, 4.21, 3.32, 3.19, 3.19, 2.44, 2.44, 1.64, 1.64, 1.64, 2.44, 3.32, 3.32, 2.53, 2.44, 1.52, 0.82, 0.0, 0.0, -0.85, 0.0, -0.89, -0.74, -0.77, -0.94, -0.84, -0.89, -0.95, -0.89, 0.0, -0.95, 0.0, 0.0, 0.0, 1.84, 4.58, 6.82, 6.55, 5.69, 4.68, 4.68, 0.0, 0.0, -0.61, -0.61, -0.54, -0.54, -0.61, -1.08, -1.23, -0.57, -0.59, -0.59, -1.84, -1.96, -1.95, -2.54, -2.69, -3.63, -3.45, -3.63, -2.83, -1.75, -1.47, 0.0, 0.0, 0.0, 0.0, 1.4, 1.49, 0.0, -2.99, -4.74, -4.68, -3.63, -2.35, -2.54, -1.83, -2.97, -5.81, -6.71, -5.26, 0.0, 2.68, 4.29, 5.1, 6.04, 6.7, 6.98, 6.84, 6.45, 5.86, 5.86, 6.08, 5.72, 5.93, 4.93, 4.06, 4.06, 3.44, 3.32, 2.44, 2.61, 2.44, 1.64, 2.44, 3.29, 4.13, 4.8, 5.2, 5.06, 5.06, 4.17, 3.42, 1.63, 0.82, 0.0, 0.0, 0.0, 0.0, -0.89, -1.84, -0.89, 0.0, 0.0, 0.0, 1.03, 1.84, 2.82, 2.82, 2.82, 3.77, 4.42, 6.55, 6.82, 6.11, 4.68, 4.26, 4.68, 0.0, 0.0, -0.61, -0.61, -0.54, -0.54, -1.19, -1.08, -1.23, -1.11, -1.13, -0.59, -1.98, -2.51, -2.46, -2.54, -2.57, -2.97, -3.63, -3.8, -3.06, -2.7, -0.89, 0.0, 0.0, 1.4, 1.4, 2.69, 4.0, 3.99, 1.58, -0.95, -3.6, -3.49, -0.81, 1.6, 3.63, 2.8, -4.92, -5.36, 0.0, 5.81, 7.63, 7.81, 7.9, 7.68, 7.78, 7.36, 6.45, 6.7, 5.86, 5.86, 5.72, 5.72, 4.75, 4.21, 3.32, 2.53, 1.6, 1.71, 1.64, 0.86, 1.58, 2.41, 5.14, 6.98, 6.98, 6.98, 6.0, 5.86, 4.87, 4.17, 3.07, 2.51, 1.76, 0.89, 0.94, 1.01, 0.95, 0.96, 0.0, 0.0, 1.05, 3.22, 4.11, 4.11, 4.58, 4.42, 4.68, 4.68, 4.56, 6.06, 6.55, 6.11, 4.42, 3.6, 3.6, 4.42, 0.0, 0.0, -0.55, -0.61, -0.54, -1.07, -1.07, -1.19, -1.08, -1.11, -1.6, -1.61, -2.16, -3.77, -4.0, -3.91, -4.0, -3.49, -3.06, -3.49, -3.49, -2.47, -1.76, -0.82, 0.0, 0.0, 1.33, 2.58, 4.4, 3.87, 2.7, 1.33, 0.0, 0.0, 3.91, 6.53, 6.42, 4.4, 0.0, -1.8, 4.24, 8.85, 9.45, 9.32, 8.73, 8.82, 7.78, 6.7, 6.7, 6.94, 5.63, 6.7, 5.72, 5.06, 4.06, 2.53, 1.71, 0.86, 0.0, 0.0, 0.0, 0.0, 1.76, 5.21, 8.38, 9.0, 7.78, 6.7, 5.14, 5.0, 4.01, 2.44, 1.64, 0.86, 0.85, 1.52, 1.75, 1.73, 0.95, 2.16, 2.23, 2.84, 3.6, 4.57, 4.8, 4.84, 4.01, 3.97, 3.77, 4.42, 4.65, 5.43, 5.84, 4.87, 3.77, 2.67, 3.77, 5.37, 0.0, -0.55, -0.55, -0.61, -1.07, -1.07, -1.07, -1.19, -1.73, -1.76, -2.23, -2.84, -4.56, -5.15, -4.94, -5.53, -5.63, -5.21, -4.2, -3.81, -4.2, -3.87, -3.81, -2.83, -1.76, 0.0, 0.0, 1.33, 2.7, 1.28, 1.22, 1.39, 4.2, 6.95, 8.12, 7.27, 5.32, 4.05, 3.87, 4.96, 8.93, 10.0, 10.0, 9.09, 7.9, 6.7, 7.51, 7.19, 7.12, 7.51, 7.19, 5.86, 5.51, 4.17, 3.42, 2.44, 1.58, 0.8, 0.0, 0.0, -0.82, 0.0, 4.58, 9.36, 10.23, 9.34, 7.78, 5.76, 5.14, 3.39, 2.44, 0.73, 0.0, 0.0, 0.0, 0.0, 0.0, 0.94, 0.95, 1.55, 2.48, 3.39, 4.02, 3.9, 3.6, 2.68, 2.53, 1.98, 2.6, 3.22, 4.11, 4.11, 4.01, 3.55, 2.67, 2.99, 3.77, 5.37, 0.0, -0.55, -0.55, -0.61, -1.19, -1.07, -1.16, -1.55, -1.73, -1.73, -2.44, -3.49, -3.84, -3.45, -4.74, -4.94, -5.82, -5.82, -5.21, -4.0, -4.0, -4.0, -4.0, -4.0, -2.58, -1.33, 0.0, 0.0, 1.39, 1.28, 1.28, 2.7, 6.3, 8.55, 7.9, 6.24, 3.77, 3.49, 7.56, 9.17, 9.96, 8.93, 8.31, 6.83, 5.9, 6.0, 5.86, 5.72, 7.38, 7.78, 7.24, 6.45, 5.63, 4.8, 4.13, 3.39, 3.51, 2.59, 1.62, 0.0, -0.89, 4.11, 10.47, 11.61, 11.02, 9.34, 7.78, 6.44, 5.41, 3.29, 0.86, 0.0, -1.46, -2.22, -2.25, -2.17, -0.94, 0.0, 0.0, 1.83, 2.84, 2.98, 2.97, 2.4, 1.4, 1.13, 0.98, 1.13, 1.98, 3.35, 3.16, 2.68, 2.76, 3.0, 3.55, 3.77, 4.87, 5.69, 0.0, -0.55, -0.55, -1.19, -1.19, -1.16, -1.16, -1.7, -1.7, -2.4, -2.84, -3.49, -4.1, -3.4, -3.82, -3.21, -2.7, -1.07, -0.53, -0.53, -0.89, -0.93, -0.89, 0.0, 0.0, 0.0, 1.33, 1.33, 2.7, 2.7, 2.6, 3.67, 6.31, 6.64, 4.5, 2.82, 3.92, 6.16, 7.64, 8.95, 9.24, 8.3, 7.36, 5.92, 5.69, 4.92, 4.8, 6.0, 6.57, 6.98, 7.36, 7.36, 6.98, 6.7, 6.83, 6.83, 6.83, 6.04, 3.49, 0.0, 2.2, 9.35, 12.71, 12.8, 11.6, 10.66, 9.34, 8.22, 6.0, 3.29, 0.86, -0.74, -2.97, -4.39, -5.3, -4.5, -3.91, -1.96, 0.0, 2.48, 3.58, 2.68, 2.0, 1.4, 1.4, 0.99, 1.4, 2.24, 2.68, 2.68, 2.4, 2.84, 2.48, 2.99, 3.0, 3.55, 4.87, 5.37, 0.0, -0.55, -0.55, -1.19, -1.19, -1.16, -1.16, -1.7, -1.7, -2.18, -2.36, -3.04, -3.68, -3.37, -2.97, -2.25, -0.55, 0.57, 1.14, 1.12, 1.11, 1.11, 1.12, 1.11, 2.37, 2.28, 2.37, 1.69, 2.71, 1.28, 1.18, 3.68, 5.2, 4.07, 2.47, 1.76, 3.02, 5.72, 7.51, 8.18, 8.05, 7.63, 6.7, 5.92, 5.1, 4.2, 6.24, 6.87, 7.59, 7.59, 7.68, 8.31, 8.31, 9.04, 9.05, 9.05, 9.04, 8.31, 4.2, 0.95, 7.37, 12.86, 13.92, 13.23, 12.98, 12.23, 11.66, 9.96, 7.78, 6.0, 3.76, 0.73, -2.25, -5.29, -6.32, -6.11, -4.74, -3.16, 1.58, 3.39, 4.29, 3.91, 3.91, 2.48, 1.98, 2.84, 2.98, 2.68, 1.2, 1.58, 1.79, 1.58, 1.2, 1.08, 2.16, 3.91, 4.74, 4.58, 0.0, -0.55, -0.61, -1.19, -1.19, -1.16, -1.16, -1.7, -1.7, -2.36, -2.36, -2.8, -3.21, -3.6, -3.49, -2.23, -1.17, 0.0, 1.14, 1.13, 1.75, 1.73, 1.73, 1.73, 1.73, 1.73, 1.73, 2.3, 2.26, 0.55, 0.0, 1.64, 3.19, 2.51, 1.69, 2.39, 3.95, 5.0, 5.86, 5.72, 6.21, 6.21, 5.51, 4.92, 3.87, 4.96, 6.95, 7.9, 7.56, 7.56, 6.39, 7.06, 7.69, 8.95, 10.88, 11.03, 10.61, 8.85, 3.36, 3.77, 10.45, 13.18, 13.23, 12.72, 12.98, 12.7, 12.08, 11.66, 10.01, 8.93, 8.12, 4.68, 0.0, -4.77, -5.81, -5.81, -4.92, -1.9, 2.68, 3.9, 4.19, 4.58, 4.95, 4.87, 4.65, 4.29, 4.09, 3.13, 1.58, -0.0, -0.0, 0.0, 0.0, 0.0, 1.27, 3.22, 3.63, 3.91, 0.0, -0.61, -0.61, -1.19, -1.07, -1.16, -1.16, -1.84, -1.67, -1.67, -2.32, -2.8, -2.77, -3.4, -3.35, -2.93, -1.76, -0.56, 0.0, 0.0, 0.57, 1.17, 1.16, 1.72, 1.72, 2.35, 2.35, 2.35, 2.83, 1.71, 0.0, 0.0, 0.0, 0.82, 1.69, 2.59, 2.97, 4.25, 4.25, 4.13, 4.17, 4.01, 3.53, 3.77, 3.7, 4.96, 6.44, 7.81, 6.98, 6.98, 6.98, 6.63, 7.28, 8.48, 8.4, 7.42, 7.9, 6.4, 3.73, 5.76, 11.11, 12.94, 12.6, 12.04, 11.27, 10.96, 10.8, 10.4, 10.79, 9.34, 8.64, 5.26, -0.0, -1.84, -3.0, -2.4, -0.0, 4.02, 5.7, 5.58, 5.84, 5.24, 4.71, 3.69, 4.11, 3.79, 3.79, 2.84, 1.58, -0.0, -1.4, -1.4, -0.0, 0.0, 1.58, 1.27, 2.2, 2.2, -0.61, -0.61, -0.61, -1.07, -1.07, -1.16, -1.7, -1.67, -1.67, -1.67, -2.32, -2.29, -2.96, -2.92, -2.89, -2.83, -2.25, -1.67, -0.56, 0.0, 0.57, 0.6, 1.13, 1.75, 1.73, 2.37, 2.83, 2.92, 2.92, 2.37, 0.6, -0.57, -1.16, 0.0, 1.14, 2.39, 3.61, 4.2, 3.53, 3.25, 2.41, 2.28, 1.18, 2.49, 2.58, 5.31, 7.6, 7.6, 6.63, 5.69, 5.69, 5.69, 6.44, 6.9, 6.9, 6.28, 4.37, 2.39, 3.6, 7.51, 9.6, 10.62, 10.0, 10.0, 9.7, 9.32, 9.7, 9.09, 8.24, 7.56, 5.46, 2.21, -1.96, -0.94, -0.0, 3.72, 5.73, 7.2, 7.44, 7.06, 6.18, 5.21, 3.7, 2.18, 0.81, 3.48, 3.48, 2.48, 2.21, 2.24, -0.0, -0.88, -0.0, -0.0, 0.0, 0.0, 0.0, 0.0, -0.54, -0.54, -0.54, -1.07, -1.07, -1.16, -1.7, -1.67, -1.67, -1.8, -1.8, -2.29, -2.44, -2.26, -2.37, -2.33, -2.3, -1.71, -1.12, 0.0, 0.0, 0.57, 0.57, 1.17, 1.73, 2.28, 2.35, 2.33, 2.26, 2.35, 1.72, 0.0, -1.14, -1.11, 0.0, 1.6, 2.59, 3.36, 2.42, 1.18, 0.85, 0.79, 1.18, 1.22, 4.0, 6.9, 7.63, 7.2, 6.28, 6.01, 5.31, 5.31, 6.01, 6.01, 5.69, 4.14, 2.69, 1.22, 3.68, 6.97, 7.68, 8.37, 7.56, 7.56, 6.64, 6.64, 6.45, 6.95, 6.58, 5.32, 2.44, -2.0, -3.91, -0.0, 5.26, 8.06, 9.42, 9.4, 8.22, 7.48, 5.76, 4.25, 2.59, 0.94, 0.0, -2.21, 1.13, 1.6, 3.2, 3.58, 1.6, -1.66, -2.4, -2.24, -2.24, -1.58, 0.0, 0.0, -0.54, -0.54, -0.54, -1.07, -1.16, -1.16, -1.7, -1.67, -1.67, -1.8, -1.65, -2.29, -2.12, -2.26, -2.23, -2.21, -1.67, -1.73, -1.15, -0.56, 0.0, 0.0, 0.57, 1.13, 1.75, 2.37, 1.77, 1.7, 1.14, 1.19, 0.57, 0.0, -0.57, -1.09, 0.0, 0.81, 1.68, 1.33, 1.28, 0.0, 0.0, 0.81, 1.22, 2.54, 5.31, 7.6, 7.6, 6.63, 6.01, 5.59, 4.96, 5.21, 6.01, 6.01, 5.21, 4.66, 3.87, 3.61, 4.8, 6.71, 6.98, 6.3, 5.21, 4.96, 4.0, 3.4, 4.37, 4.37, 4.2, 2.82, 0.0, -1.72, 0.0, 5.4, 8.82, 10.66, 10.58, 9.4, 8.18, 6.56, 5.06, 4.13, 2.47, 0.0, -3.35, -4.02, 0.0, 3.58, 4.47, 4.02, -0.0, -2.68, -2.21, 0.0, 0.0, 0.0, 0.0, 0.0, -0.54, -0.54, -0.59, -1.16, -1.16, -1.16, -1.7, -1.67, -1.67, -1.8, -1.65, -1.76, -2.12, -2.26, -1.73, -1.71, -1.78, -1.75, -1.11, -0.55, 0.0, 0.0, 0.0, 0.58, 1.71, 1.13, 0.59, 0.0, 0.0, -0.58, -0.58, 0.0, -0.57, -1.11, -0.52, 0.0, 0.0, 0.0, 0.0, 0.0, 0.0, 1.33, 2.33, 3.8, 6.32, 7.21, 6.87, 6.32, 4.96, 5.21, 5.21, 4.88, 4.88, 4.88, 5.46, 4.88, 4.88, 5.1, 5.98, 6.24, 6.24, 5.98, 4.66, 4.0, 2.46, 1.84, 1.84, 1.4, 0.0, 0.0, 0.0, 0.83, 4.1, 8.18, 9.77, 10.05, 9.39, 8.29, 7.23, 5.67, 4.75, 3.53, 2.7, -3.47, -4.77, -1.27, 0.96, 2.48, 3.35, 4.02, 3.13, -0.0, 1.2, 3.58, 4.02, 3.58, 2.68, 2.68, -0.59, -0.59, -0.59, -1.16, -1.16, -1.16, -1.7, -1.67, -1.67, -1.8, -1.65, -1.76, -1.63, -1.73, -1.73, -2.57, -2.23, -1.71, -1.14, -0.56, -0.56, -1.66, -1.69, -1.64, -0.8, -1.15, -1.11, -1.61, -1.57, -1.14, -0.57, 0.0, 0.0, 0.0, -0.5, -0.51, -1.11, -1.12, -1.62, 0.0, 0.0, 1.84, 3.61, 4.88, 6.95, 6.3, 6.3, 4.66, 4.66, 4.66, 4.88, 4.88, 4.88, 5.46, 6.3, 5.98, 5.72, 5.98, 6.98, 6.24, 5.1, 4.88, 3.87, 1.84, 0.94, 0.89, 0.0, 0.0, 0.0, 0.0, 1.25, 3.3, 5.8, 7.28, 7.22, 6.42, 5.67, 4.07, 4.16, 3.25, 2.51, 2.59, 0.94, -1.08, -3.13, -0.0, 2.2, 1.7, 2.95, 3.6, 4.92, 4.92, 5.73, 5.81, 6.64, 5.94, 4.98, 4.98, 0.0, -0.59, -0.59, -1.16, -1.16, -1.16, -1.16, -1.67, -1.67, -1.65, -1.65, -1.76, -1.63, -1.73, -2.26, -2.23, -2.4, -1.63, -1.67, -1.62, -2.53, -2.8, -3.32, -4.87, -4.21, -3.23, -2.37, -1.12, -0.56, 0.0, 0.53, 0.56, 1.12, 1.09, 0.0, 0.0, -0.59, -0.54, -0.52, 0.0, 1.18, 2.8, 3.3, 4.66, 5.1, 4.6, 3.87, 3.87, 3.7, 3.7, 3.7, 3.7, 5.21, 6.01, 5.89, 5.76, 6.98, 6.14, 5.9, 4.8, 3.61, 2.39, 2.28, 1.33, 0.89, 0.0, 0.0, 0.0, 0.0, 0.0, 0.84, 2.44, 3.2, 3.22, 2.42, 1.57, 0.0, 0.0, 0.0, 0.0, 0.8, 0.85, 0.89, 0.89, 0.89, 2.41, 3.47, 3.9, 2.6, 3.35, 4.98, 5.73, 6.2, 6.26, 6.2, 6.0, 4.98, 4.98, 0.0, -0.53, -0.53, -1.05, -1.05, -1.05, -1.14, -1.67, -1.67, -1.65, -1.65, -1.76, -1.63, -1.73, -1.73, -2.23, -2.23, -2.26, -2.26, -4.13, -4.17, -2.26, -2.29, -2.75, -3.35, -2.25, -1.15, 0.0, 0.55, 1.14, 1.69, 2.21, 2.21, 1.69, 1.12, 0.55, 0.0, 0.0, 0.0, 0.58, 1.67, 2.3, 3.3, 3.97, 4.45, 5.1, 3.87, 2.39, 2.28, 2.58, 2.46, 3.52, 4.96, 6.64, 7.56, 5.89, 6.83, 6.88, 5.69, 3.45, 2.39, 2.39, 1.16, 0.0, 0.0, 0.0, 0.0, 0.0, 0.0, 0.0, 0.83, 1.58, 1.57, 0.0, -0.79, -2.45, -4.37, -4.81, -3.25, -1.6, -0.86, 0.0, 0.85, 0.77, 1.75, 2.67, 4.58, 4.46, 4.92, 3.47, 3.63, 4.6, 4.98, 4.38, 4.47, 4.57, 4.22, 4.22, 0.0, -0.53, -0.53, -0.53, -1.14, -1.14, -1.14, -1.14, -1.67, -1.65, -1.65, -1.76, -1.63, -1.73, -1.73, -1.71, -2.23, -2.23, -2.86, -3.3, -2.77, -1.11, -0.57, -0.54, -1.12, -0.56, 0.0, 0.0, 1.11, 1.72, 1.71, 1.71, 1.71, 1.72, 1.66, 1.14, 0.55, 0.56, 0.56, 0.56, 1.12, 1.75, 2.3, 2.83, 4.03, 4.73, 3.61, 1.22, 1.16, 1.26, 1.2, 3.8, 6.01, 6.98, 6.87, 7.56, 7.35, 7.59, 6.24, 3.87, 2.57, 1.68, 0.85, 0.0, 0.0, 0.0, -0.89, -0.85, 0.0, 0.0, 2.52, 3.76, 3.22, 1.56, -3.39, -5.3, -6.53, -6.77, -5.99, -4.4, -2.6, -0.78, 0.0, 0.89, 1.84, 3.6, 4.42, 5.37, 5.43, 3.79, 2.6, 2.53, 2.68, 2.84, 3.39, 4.02, 5.26, 5.26, 0.0, 0.0, -0.53, -0.58, -1.14, -1.14, -1.14, -1.14, -1.14, -1.12, -1.65, -1.76, -1.63, -1.73, -1.73, -1.71, -2.23, -2.37, -2.86, -2.97, -2.25, -1.14, 0.0, 0.0, 0.0, 0.0, 0.0, 0.0, 0.59, 0.56, 1.16, 1.16, 1.1, 1.16, 1.16, 1.17, 1.14, 1.14, 0.58, 0.55, 0.59, 1.11, 1.75, 2.33, 3.37, 3.83, 2.39, 0.0, 0.0, 0.0, 2.54, 5.03, 6.63, 6.63, 6.98, 7.44, 7.41, 7.68, 6.24, 4.34, 2.57, 1.75, 0.81, 0.0, 0.0, -0.89, -1.75, -0.94, 0.94, 3.32, 3.77, 3.82, 2.49, 1.18, 0.0, -2.68, -4.46, -5.43, -6.39, -5.94, -3.8, -1.67, 0.0, 0.85, 2.54, 4.26, 4.42, 5.37, 6.18, 6.21, 4.0, 1.8, 1.8, 2.23, 3.6, 4.82, 4.92, 4.92, 0.0, 0.0, 0.0, -0.58, -0.58, -1.14, -1.14, -1.14, -1.23, -1.12, -1.12, -1.76, -1.63, -1.73, -1.73, -1.71, -1.71, -2.21, -2.33, -2.3, -2.28, -1.71, -1.14, -0.56, -0.59, 0.0, 0.0, 0.0, 0.0, 0.58, 0.58, 0.57, 1.14, 1.1, 1.16, 1.17, 1.12, 1.14, 0.57, 0.58, 0.59, 1.11, 1.67, 1.69, 2.23, 2.26, 1.22, 0.0, 1.26, 2.46, 4.0, 4.71, 5.03, 5.69, 6.28, 6.63, 6.11, 6.32, 6.58, 4.88, 3.27, 1.84, 1.67, 0.85, 0.0, 0.0, 0.0, 2.54, 5.53, 5.76, 4.4, 0.0, 2.5, 3.25, 3.53, 1.49, 0.0, -1.7, -5.21, -4.54, -3.11, -1.55, 0.0, 2.18, 3.6, 4.68, 4.87, 5.37, 6.18, 6.55, 5.6, 3.9, 2.68, 3.58, 4.85, 5.81, 5.81, 5.81, 0.0, 0.0, 0.0, -0.58, -0.58, -0.58, -1.14, -1.14, -1.23, -1.12, -1.12, -1.2, -1.63, -1.73, -1.73, -1.71, -1.71, -2.21, -2.33, -2.19, -2.3, -1.73, -1.71, -1.14, -1.12, -0.59, 0.0, 0.0, 0.0, 0.0, 0.0, 0.55, 0.55, 0.58, 0.58, 0.59, 0.56, 0.57, 0.57, 0.58, 1.16, 1.18, 1.12, 1.69, 2.23, 1.71, 0.57, 1.12, 1.75, 2.28, 3.32, 3.61, 3.8, 3.91, 5.37, 5.69, 5.69, 4.58, 5.59, 5.21, 4.2, 3.45, 2.57, 2.7, 1.68, 1.75, 4.5, 7.41, 8.42, 3.36, 0.86, 0.0, 1.2, 3.3, 3.3, 3.17, 1.44, 0.0, 0.0, -1.99, -1.7, 0.0, 1.72, 3.33, 4.42, 4.58, 4.87, 6.18, 6.11, 6.06, 6.01, 4.65, 4.01, 5.37, 6.51, 6.98, 6.98, 6.98, 0.0, 0.0, 0.0, 0.0, -0.58, -0.58, -1.14, -1.23, -1.12, -1.12, -1.12, -1.2, -1.1, -1.73, -1.73, -1.71, -1.71, -1.69, -1.69, -2.19, -1.75, -1.75, -1.73, -1.73, -1.15, -1.14, -0.56, 0.0, 0.0, 0.0, 0.0, 0.0, 0.0, 0.0, 0.56, 0.56, 0.56, 0.57, 0.57, 0.58, 0.59, 1.18, 1.2, 1.69, 1.69, 1.69, 1.12, 1.12, 1.11, 1.73, 2.28, 1.67, 2.39, 3.6, 5.03, 5.03, 5.37, 4.56, 5.03, 5.59, 5.46, 3.87, 2.57, 1.68, 1.68, 4.96, 8.42, 9.05, 5.06, 2.59, 0.85, 0.0, 0.0, 1.58, 2.5, 2.43, 1.4, 0.0, -0.82, -0.89, 0.0, 3.58, 4.8, 4.11, 4.01, 4.58, 5.37, 6.11, 6.01, 6.01, 6.18, 5.3, 5.37, 6.08, 7.03, 7.76, 7.2, 7.2, 0.0, 0.0, 0.0, 0.0, -0.58, -0.53, -0.57, -1.12, -1.12, -1.12, -1.12, -1.2, -1.1, -1.73, -1.73, -1.71, -1.71, -1.69, -1.69, -1.78, -1.67, -1.75, -1.75, -1.73, -1.16, -1.15, -0.57, -0.6, 0.0, 0.0, 0.0, 0.0, 0.0, 0.0, 0.0, 0.0, 0.0, 0.0, 0.0, 0.0, 0.59, 1.12, 1.69, 1.69, 1.69, 1.78, 1.12, 1.11, 0.56, 0.56, 1.11, 1.18, 0.57, 1.1, 2.67, 3.55, 4.14, 4.29, 4.58, 4.87, 4.2, 3.32, 2.6, 1.75, 3.87, 7.06, 8.79, 6.04, 4.07, 1.69, 0.82, 0.0, 0.0, 0.0, 1.66, 1.58, 0.79, -0.75, -2.49, -1.98, 3.58, 5.75, 5.36, 4.8, 4.43, 4.74, 6.11, 6.45, 6.01, 5.89, 5.94, 6.64, 6.32, 7.15, 7.67, 7.67, 7.44, 7.44, 0.0, 0.0, 0.0, 0.0, -0.53, -0.57, -0.57, -1.12, -1.12, -1.12, -1.12, -1.2, -1.1, -1.18, -1.73, -1.71, -1.71, -1.81, -1.69, -1.69, -1.67, -1.67, -1.75, -1.75, -1.65, -1.16, -1.15, -1.1, -0.58, -0.57, 0.0, 0.0, 0.0, 0.0, 0.0, 0.0, 0.0, 0.0, 0.0, 0.0, 0.56, 0.56, 1.71, 1.71, 1.14, 1.12, 0.0, 0.0, 0.0, 0.0, 0.0, 0.0, 0.0, 0.0, 0.0, 0.83, 2.82, 4.29, 4.74, 4.58, 3.6, 2.57, 1.76, 2.7, 6.18, 8.49, 6.83, 5.06, 3.36, 1.69, 0.0, 0.0, -0.83, -0.83, -0.83, -0.81, -0.84, -0.83, -2.67, -2.68, 2.99, 4.65, 4.34, 5.29, 4.84, 4.74, 5.77, 6.01, 6.01, 6.32, 6.64, 6.95, 6.95, 7.02, 7.02, 7.02, 6.68, 6.68, 0.0, 0.0, 0.0, 0.0, -0.53, -0.57, -0.57, -0.57, -1.12, -1.12, -1.12, -1.2, -1.1, -1.18, -1.73, -1.61, -1.71, -1.71, -1.69, -1.69, -1.78, -1.67, -1.67, -1.75, -1.75, -1.18, -1.18, -1.11, -0.55, -0.58, -0.57, -0.59, -0.56, -0.56, -0.56, -0.59, -0.56, 0.0, 0.0, 0.0, 0.0, 0.57, 1.18, 0.85, 1.75, 1.14, 0.0, -1.75, -2.19, -0.56, -0.59, -0.59, 0.0, 0.0, -0.53, 0.0, 1.4, 2.66, 3.72, 3.97, 2.67, 0.89, 1.75, 4.74, 7.35, 7.68, 6.7, 5.06, 2.59, 0.85, 0.0, -0.8, -1.6, -2.45, -3.25, -3.28, -2.41, -0.83, -0.89, -1.9, 0.88, 3.22, 4.07, 4.44, 5.51, 5.21, 4.74, 5.37, 5.53, 5.89, 6.18, 6.04, 6.14, 6.95, 6.95, 6.24, 6.24, 6.24, 0.0, 0.0, 0.0, 0.0, 0.0, -0.57, -0.57, -0.57, -0.57, -1.12, -1.12, -1.2, -1.1, -1.1, -1.18, -1.09, -1.71, -1.71, -1.69, -1.69, -1.69, -1.78, -1.78, -1.67, -1.12, -1.12, -1.12, -1.18, -1.11, -0.58, -1.14, -1.12, -1.17, -1.11, -1.17, -0.59, -0.56, -0.57, 0.0, 0.0, 0.0, 0.57, 0.59, 0.53, 0.58, 0.0, -0.82, -1.73, -2.36, -2.36, -1.65, -1.63, -1.2, -0.55, -0.58, -0.59, 0.0, 1.08, 2.8, 2.64, 1.73, 0.85, 3.45, 5.89, 6.64, 6.18, 6.04, 5.32, 2.7, 0.0, -0.86, -0.86, -0.81, -2.47, -4.13, -4.04, -3.28, -1.66, 0.0, 0.0, 0.0, 1.13, 2.2, 3.78, 3.98, 5.29, 4.84, 4.01, 4.29, 4.46, 4.37, 4.2, 4.5, 5.9, 5.38, 5.38, 5.38, 5.38, 0.0, 0.0, 0.0, 0.0, 0.0, -0.57, -0.57, -0.57, -0.57, -0.57, -1.12, -1.12, -1.1, -1.1, -1.18, -1.18, -1.16, -1.16, -1.71, -1.69, -1.69, -1.69, -1.78, -1.78, -1.67, -1.12, -1.12, -1.12, -1.11, -1.1, -1.69, -1.76, -1.67, -1.17, -1.17, -1.12, -1.18, -0.57, -0.55, 0.0, 0.0, 0.0, 0.0, 0.0, 0.0, -1.6, -2.41, -1.1, -0.57, 0.0, 0.0, 0.0, 0.0, -0.58, -0.54, -0.55, 0.0, 0.0, 0.57, 0.96, 0.89, 1.75, 3.45, 4.96, 4.34, 3.45, 3.27, 2.7, 2.49, 0.0, 0.0, 0.0, 0.0, 0.0, -1.63, -4.04, -4.13, -2.39, -1.66, -0.84, 0.0, 0.0, 0.89, 1.84, 2.84, 3.82, 3.58, 3.84, 3.11, 3.09, 3.15, 3.06, 2.97, 2.97, 4.5, 4.28, 4.6, 4.6, 0.0, 0.0, 0.0, 0.0, 0.0, -0.57, -0.57, -0.57, -0.57, -0.57, -1.12, -1.2, -1.2, -1.1, -1.18, -1.18, -1.09, -1.16, -1.16, -1.16, -1.69, -1.69, -1.69, -1.78, -1.78, -1.78, -1.14, -1.14, -1.69, -1.65, -2.25, -2.25, -1.69, -1.69, -1.76, -1.14, -1.14, -1.15, -0.59, -0.56, 0.0, 0.0, 0.0, 0.0, -0.56, -1.69, -1.73, 0.0, 0.54, 1.09, 0.55, 0.59, 0.0, 0.0, 0.0, 0.0, 0.0, 0.0, 0.0, 0.0, 0.0, 1.84, 3.45, 3.15, 3.45, 2.69, 0.89, 0.0, 0.0, 0.0, 0.0, 0.85, 1.25, 1.17, 0.0, -1.59, -3.14, -3.32, -2.45, -1.43, 0.0, 0.0, 0.0, 0.51, 1.6, 2.5, 2.6, 2.8, 2.8, 2.4, 1.52, 1.47, 1.47, 1.47, 3.06, 3.15, 3.8, 3.8, 0.0, 0.0, 0.0, 0.0, 0.0, 0.0, -0.57, -0.57, -0.57, -0.57, -1.12, -1.2, -1.2, -1.1, -1.1, -1.18, -1.09, -1.09, -1.16, -1.16, -1.69, -1.69, -1.69, -1.69, -1.78, -1.78, -1.69, -1.69, -1.67, -2.51, -2.3, -1.75, -1.65, -1.73, -1.71, -1.15, -1.1, -1.16, -0.56, -0.56, 0.0, 0.0, 0.0, 0.0, -0.54, -1.14, -1.18, 0.0, 0.0, 0.59, 0.59, 0.0, 0.0, 0.0, 0.0, 0.0, 0.0, 0.0, 0.0, 0.0, 0.55, 1.84, 2.69, 2.67, 2.54, 1.75, 0.89, 0.0, 0.0, 0.0, 1.69, 1.63, 0.83, 0.0, 0.0, 0.0, 0.0, -0.8, -0.72, -0.71, 0.0, 0.69, 0.69, 0.73, 0.57, 1.26, 1.79, 1.86, 1.98, 0.89, 0.89, 0.0, 0.0, 0.73, 0.76, 2.69, 3.09, 3.09, 0.0, 0.0, 0.0, 0.0, 0.0, 0.0, -0.57, -0.57, -0.57, -0.57, -0.57, -1.2, -1.2, -1.1, -1.1, -1.18, -1.18, -1.09, -1.16, -1.16, -1.71, -1.69, -1.69, -1.69, -1.69, -1.78, -1.69, -1.78, -2.3, -2.28, -1.65, -1.75, -1.11, -1.11, -1.16, -1.16, -1.11, -1.12, -0.56, -0.57, -0.57, 0.0, 0.0, 0.0, 0.0, -0.57, -1.12, -0.56, -0.56, 0.0, 0.0, 0.0, 0.0, 0.0, 0.0, 0.0, 0.0, 0.0, 0.0, 0.0, 1.4, 2.82, 2.82, 2.54, 2.67, 1.84, 1.75, 0.89, 0.0, 1.28, 1.62, 1.28, 0.0, -0.79, 0.0, 0.81, 1.6, 0.79, 0.72, 0.0, 0.0, 0.72, 0.74, 1.38, 0.75, 0.58, 0.0, 0.0, 0.0, 0.0, 0.0, 0.0, 0.0, 0.0, 0.0, 1.55, 2.26, 2.26, 0.0, 0.0, 0.0, 0.0, 0.0, 0.0, -0.57, -0.57, -0.57, -0.57, -0.57, -0.61, -1.2, -1.1, -1.1, -1.1, -1.18, -1.18, -1.16, -1.71, -1.71, -1.81, -1.69, -1.69, -1.69, -1.78, -1.78, -1.78, -2.19, -2.3, -1.65, -1.65, -1.16, -1.16, -1.16, -0.59, -0.56, -0.56, -0.57, -0.57, 0.0, 0.0, 0.0, 0.0, 0.0, -0.56, -1.12, -1.14, -1.14, -1.12, -0.56, -0.55, -0.56, -0.56, -0.54, -0.55, -0.56, -0.57, 0.0, 0.0, 0.61, 2.82, 2.82, 2.54, 2.54, 2.54, 1.84, 1.67, 1.75, 1.68, 1.62, 1.28, 0.0, 0.0, 0.0, 0.8, 2.34, 2.39, 1.59, 0.0, 0.0, 0.0, 0.0, 0.0, 0.0, 0.0, 0.0, -0.8, -0.84, -0.8, 0.0, 0.0, 0.0, 0.0, 0.0, 0.78, 1.63, 1.63, 0.0, 0.0, 0.0, 0.0, 0.0, 0.0, -0.57, -0.57, -0.57, -0.57, -0.57, -0.61, -1.2, -1.1, -1.1, -1.1, -1.18, -1.18, -1.09, -1.71, -1.71, -1.71, -1.69, -1.69, -1.69, -1.78, -1.78, -2.33, -2.19, -1.67, -1.75, -1.75, -1.65, -1.16, -1.1, -1.1, -0.59, -0.59, -0.54, -0.57, -0.54, 0.0, 0.0, 0.0, -0.56, -0.56, -1.12, -1.2, -1.69, -1.78, -1.75, -1.16, -1.16, -1.12, -1.14, -0.55, -0.56, -0.57, -0.57, 0.0, 0.0, 1.07, 1.25, 1.73, 1.65, 2.46, 1.75, 1.67, 0.81, 0.81, 0.0, 0.85, 1.21, 0.79, 0.0, 0.0, 0.82, 0.8, 0.0, 0.0, -0.73, -0.74, -0.72, -0.74, 0.0, 0.0, 0.0, 0.0, -0.81, 0.0, 0.0, 0.89, 0.95, 0.95, 0.78, 1.52, 1.52, 1.52, 0.0, 0.0, 0.0, 0.0, 0.0, 0.0, -0.57, -0.57, -0.57, -0.57, -0.57, -0.61, -0.61, -1.1, -1.1, -1.1, -1.18, -1.18, -1.73, -1.71, -1.71, -1.71, -1.69, -1.69, -1.69, -1.69, -1.78, -2.33, -2.33, -1.78, -1.67, -1.67, -1.75, -1.11, -1.16, -1.16, -1.16, -1.11, -0.56, -0.57, -0.54, -0.55, 0.0, 0.0, -0.57, -1.12, -1.75, -2.33, -2.21, -2.33, -2.19, -2.3, -1.65, -1.75, -1.69, -1.09, -1.1, -0.57, -0.58, 0.0, 0.0, 0.0, 0.0, 0.89, 1.65, 1.26, 0.89, 0.85, 0.0, 0.0, 0.0, 0.85, 1.13, 1.13, 0.0, -0.79, -0.79, -0.82, -0.83, -0.72, -0.73, -0.71, -0.72, -0.71, 0.0, 0.0, 0.0, 0.0, 0.0, 0.0, 0.8, 0.84, 0.84, 1.73, 1.96, 2.35, 2.35, 2.47, 0.0, 0.0, 0.0, 0.0, 0.0, 0.0, -0.57, -0.57, -0.57, -0.57, -0.57, -0.61, -1.2, -1.1, -1.1, -1.1, -1.1, -1.18, -1.73, -1.61, -1.71, -1.71, -1.81, -1.69, -1.69, -1.69, -1.69, -1.78, -1.78, -1.78, -1.78, -1.78, -1.67, -1.67, -1.11, -1.11, -1.16, -1.11, -1.12, -1.14, -1.07, -0.55, 0.0, 0.0, 0.0, -1.11, -2.28, -3.01, -3.56, -2.89, -2.86, -2.83, -2.3, -2.3, -1.69, -1.71, -1.1, -1.2, -0.53, -0.58, 0.0, 0.0, 0.0, 0.83, 0.94, 0.0, 0.0, 0.0, 0.0, 0.0, 0.0, 1.28, 0.0, 0.81, 0.82, 0.0, -1.62, -2.43, -2.15, -1.44, -0.73, 0.0, -0.74, -0.72, 0.0, 0.0, 0.0, 0.0, 0.0, 0.85, 0.81, 0.85, 0.8, 1.65, 1.73, 1.63, 1.63, 2.35, 0.0, 0.0, 0.0, 0.0, 0.0, -0.57, -0.57, -0.57, -0.57, -0.57, -0.57, -0.61, -1.2, -1.1, -1.1, -1.1, -1.1, -1.1, -1.73, -1.61, -1.71, -1.71, -1.71, -1.81, -1.69, -1.69, -1.69, -1.69, -1.69, -1.69, -1.69, -1.69, -1.78, -1.67, -1.67, -1.75, -1.11, -1.18, -1.12, -1.14, -1.14, -1.16, -1.12, -1.14, -1.6, -1.73, -2.8, -3.37, -4.08, -3.4, -3.37, -2.86, -2.83, -2.3, -2.33, -1.71, -1.73, -1.12, -1.12, -0.58, 0.0, 0.0, 0.0, 0.0, 0.0, 0.0, 0.0, 0.0, 0.89, 0.85, 0.89, 0.81, 0.0, 0.0, 2.31, 1.58, 0.0, -2.41, -2.41, -2.2, -2.2, -1.48, -1.43, -1.41, -1.44, -1.48, -0.73, 0.0, 0.0, 0.0, 0.0, 0.0, 0.85, 0.89, 0.84, 0.94, 0.78, 1.63, 0.0, 0.0, 0.0, 0.0, 0.0, -0.57, -0.57, -0.57, -0.57, -0.57, -0.57, -0.61, -1.2, -1.1, -1.1, -1.1, -1.1, -1.1, -1.73, -1.73, -1.71, -1.71, -1.71, -1.81, -1.81, -1.69, -1.69, -1.69, -1.69, -1.69, -1.69, -1.69, -1.69, -1.78, -1.67, -1.67, -1.75, -1.75, -1.67, -1.78, -1.69, -1.71, -1.63, -1.8, -3.2, -4.01, -2.86, -2.32, -2.84, -2.82, -3.45, -3.4, -2.89, -2.86, -2.86, -2.37, -2.26, -1.76, -1.12, -0.58, -0.53, 0.0, 0.0, 0.0, 0.0, 1.25, 0.0, 0.0, 0.84, 1.75, 0.85, 0.0, 0.0, 0.0, 1.25, 2.31, 1.63, 0.0, -1.6, -2.51, -2.88, -2.93, -2.93, -2.93, -2.99, -2.88, -2.25, -1.56, -1.62, -0.82, -0.82, 0.0, 0.0, 0.0, 0.89, 0.84, 0.89, 0.89, 0.0, 0.0, 0.0, 0.0, 0.0, -0.57, -0.57, -0.57, -0.57, -0.57, -0.57, -0.57, -1.2, -1.2, -1.2, -1.2, -1.1, -1.1, -1.1, -1.73, -1.61, -1.71, -1.71, -1.71, -1.71, -1.81, -1.81, -1.81, -1.81, -1.69, -1.69, -1.69, -1.69, -1.69, -1.78, -1.67, -1.75, -1.75, -1.67, -1.78, -1.69, -1.71, -2.26, -2.26, -3.37, -3.97, -2.19, -1.1, -1.16, -1.7, -2.36, -2.32, -2.96, -2.92, -2.89, -2.73, -2.26, -2.12, -1.76, -1.12, -0.58, -0.59, 0.0, 0.0, 1.4, 1.25, 2.4, 1.32, 1.73, 1.75, 0.85, 0.0, -1.28, -0.82, -1.16, 0.0, 1.54, 1.64, 0.81, 0.0, -0.7, -1.52, -1.42, -2.25, -2.95, -3.16, -3.02, -3.25, -2.39, -2.39, -1.62, -0.78, 0.0, 0.0, 0.84, 1.73, 1.73, 1.73, 0.0, 0.0, 0.0, 0.0, 0.0, -0.57, -0.57, -0.57, -0.57, -0.57, -0.57, -0.57, -1.12, -1.2, -1.2, -1.2, -1.1, -1.1, -1.63, -1.73, -1.73, -1.71, -1.71, -1.71, -1.71, -1.71, -1.71, -1.71, -1.81, -1.81, -1.81, -1.81, -1.69, -1.69, -1.78, -2.33, -2.19, -2.3, -2.19, -2.33, -2.21, -2.23, -2.23, -2.4, -2.89, -2.86, -1.69, -1.16, -0.59, -0.61, -1.12, -1.8, -1.65, -1.76, -2.12, -2.26, -2.75, -2.26, -1.76, -1.65, -1.23, -0.58, -0.59, 0.0, 1.4, 2.82, 2.82, 2.54, 2.51, 1.65, 0.0, -0.85, -1.68, -1.69, -1.7, -1.71, 0.0, 2.44, 3.22, 2.33, 1.65, 0.73, 0.73, 0.0, 0.0, -0.71, -1.56, -1.56, -2.39, -2.39, -1.62, -1.54, -0.81, 0.0, 0.84, 0.89, 0.89, 0.89, 0.0, 0.0, 0.0, 0.0, 0.0, -0.57, -0.57, -0.57, -0.57, -0.57, -0.57, -0.57, -1.12, -1.12, -1.2, -1.2, -1.1, -1.1, -1.63, -1.73, -1.73, -1.73, -1.71, -1.71, -1.71, -1.71, -1.71, -1.71, -1.71, -1.71, -1.81, -2.37, -2.21, -2.21, -2.33, -2.33, -2.19, -2.19, -2.33, -2.33, -2.21, -2.37, -2.23, -2.23, -2.73, -2.37, -2.37, -1.71, -1.16, -1.16, -1.09, -1.1, -1.2, -1.12, -1.12, -2.29, -2.44, -2.26, -2.29, -1.76, -1.12, -1.14, -1.05, 0.0, 1.25, 2.82, 2.82, 1.84, 1.73, 0.89, 0.0, -0.89, -1.68, -1.69, -1.63, -0.8, 0.0, 1.58, 3.22, 3.98, 3.2, 2.85, 1.48, 0.72, 0.0, 0.0, 0.0, -0.79, -0.75, -0.78, -1.22, -0.8, 0.0, 0.0, 0.0, 0.83, 0.83, 0.83, 0.0, 0.0, 0.0, 0.0, -0.57, -0.57, -0.57, -0.57, -0.57, -0.57, -0.57, -0.57, -1.12, -1.12, -1.2, -1.2, -1.2, -1.1, -1.63, -1.73, -1.73, -1.73, -1.73, -1.71, -1.71, -1.71, -1.71, -1.71, -2.23, -2.23, -2.37, -2.37, -2.37, -2.21, -2.21, -2.33, -2.33, -2.86, -2.86, -2.86, -2.89, -2.89, -2.73, -2.73, -2.23, -2.23, -2.23, -2.23, -2.23, -1.71, -1.71, -1.16, -1.18, -1.1, -0.57, -1.12, -1.65, -2.29, -2.29, -1.65, -1.12, -1.14, -0.53, 0.0, 0.54, 1.25, 0.0, 0.0, 0.0, 0.0, -0.89, -1.67, -1.75, -1.76, -0.85, 0.0, 0.0, 0.0, 1.62, 3.2, 4.07, 3.22, 1.63, 0.74, 0.0, 0.0, 0.0, -0.71, -0.85, 0.0, -1.26, -0.84, -0.89, 0.0, 0.0, 0.0, 0.0, 0.0, 0.0, 0.0, 0.0, 0.0, -0.57, -0.57, -0.57, -0.57, -0.57, -0.57, -0.57, -0.57, -1.12, -1.12, -1.2, -1.2, -1.2, -1.1, -1.63, -1.63, -1.73, -1.73, -1.73, -1.73, -1.71, -1.71, -1.71, -2.23, -2.23, -2.23, -2.37, -2.37, -2.37, -2.21, -2.71, -2.86, -2.86, -2.86, -2.86, -2.86, -2.89, -2.89, -2.92, -2.92, -2.4, -2.4, -2.4, -2.4, -2.26, -2.4, -2.23, -1.71, -1.73, -1.18, -0.57, -1.12, -1.23, -1.8, -1.8, -1.67, -1.14, -0.58, -0.59, 0.0, 0.55, 0.0, 0.0, 0.0, -1.25, -0.84, -0.89, -0.94, -0.89, -0.85, -0.85, 0.0, 0.0, 0.0, 0.81, 2.39, 2.49, 3.32, 1.64, 0.73, 0.0, -0.71, -1.44, -1.42, -1.69, -0.81, -0.85, -0.84, -0.89, 0.0, 0.0, 0.0, 0.0, 0.0, 0.0, 0.0, 0.0, 0.0, -0.57, -0.57, -0.57, -0.57, -0.57, -0.57, -0.57, -0.57, -1.12, -1.12, -1.12, -1.2, -1.2, -1.1, -1.63, -1.63, -1.63, -1.73, -1.73, -1.73, -1.73, -1.71, -2.23, -2.23, -2.23, -2.23, -2.37, -2.37, -2.89, -2.89, -2.71, -2.86, -2.86, -2.86, -2.86, -2.71, -2.89, -2.73, -2.92, -2.92, -2.4, -2.4, -2.4, -2.4, -2.26, -2.26, -2.26, -1.73, -1.73, -1.73, -1.1, -1.2, -1.12, -1.12, -1.14, -1.14, -1.05, -0.59, -0.54, 0.0, 0.0, 0.0, 0.0, 0.0, 0.0, 0.0, 0.0, -0.8, -0.89, -0.85, -0.82, -0.85, 0.0, 0.0, 0.86, 0.83, 1.66, 1.68, 2.44, 1.47, 0.0, -1.41, -2.99, -2.95, -2.97, -2.17, -1.67, -0.84, -0.83, 0.0, 0.0, 0.0, 0.0, 0.0, 0.0, 0.0, 0.0, 0.0, -0.57, -0.57, -0.57, -0.57, -0.57, -0.57, -0.57, -1.12, -1.12, -1.12, -1.12, -1.2, -1.2, -1.2, -1.76, -1.63, -1.63, -1.73, -1.73, -1.73, -1.73, -2.4, -2.23, -2.23, -2.23, -2.23, -2.37, -2.89, -2.89, -2.89, -2.89, -2.89, -2.71, -2.71, -2.89, -2.89, -2.89, -2.92, -2.92, -2.75, -2.26, -2.26, -2.4, -2.26, -2.26, -2.44, -2.29, -2.29, -1.63, -1.63, -1.1, -1.1, -1.1, -1.12, -1.12, -1.14, -1.16, -0.59, -0.61, -0.55, -0.57, -0.96, 0.0, 0.0, 0.0, -0.84, -0.85, -1.75, -0.89, -0.85, -0.85, -0.82, 0.0, 0.0, 0.0, 0.83, 0.83, 0.79, 2.43, 2.37, 0.73, -0.72, -4.6, -5.18, -4.71, -3.7, -2.99, -2.67, -1.84, -0.96, 0.0, 0.0, 0.0, 0.0, 0.0, 0.0, 0.0, 0.0, -0.57, -0.57, -0.57, -0.57, -0.57, -0.57, -0.57, -1.12, -1.12, -1.12, -1.12, -1.2, -1.2, -1.2, -1.76, -1.76, -1.76, -1.63, -1.73, -1.73, -2.26, -2.4, -2.23, -2.23, -2.23, -2.23, -2.89, -2.89, -2.89, -2.89, -2.89, -2.89, -2.89, -2.89, -2.89, -2.89, -2.73, -2.92, -2.75, -2.75, -2.75, -2.75, -2.75, -2.26, -2.26, -2.29, -2.29, -2.29, -1.76, -1.76, -1.63, -1.63, -1.1, -1.1, -1.12, -1.14, -1.14, -1.16, -1.19, -1.08, -1.23, -0.96, 0.0, 0.0, 0.0, -1.84, -2.54, -2.44, -3.32, -1.75, -1.68, -0.85, -0.82, 0.0, 0.0, 0.0, 0.0, 0.83, 1.61, 1.63, 0.82, -1.54, -3.8, -5.49, -5.94, -5.49, -4.46, -3.79, -2.47, -1.84, -1.03, -0.89, -0.89, -0.89, 0.0, 0.0, 0.0, -0.53, -0.57, -0.57, -0.57, -0.57, -0.57, -0.57, -0.57, -1.12, -1.12, -1.12, -1.12, -1.2, -1.2, -1.2, -1.76, -1.76, -1.76, -1.76, -1.73, -2.26, -2.26, -2.26, -2.4, -2.23, -2.23, -2.73, -2.73, -2.73, -2.89, -2.89, -2.89, -2.89, -2.89, -2.89, -2.89, -2.89, -2.92, -2.92, -2.75, -2.75, -2.75, -2.75, -2.75, -2.26, -2.44, -2.29, -2.29, -2.14, -2.14, -1.76, -1.76, -1.73, -1.73, -1.63, -1.76, -1.65, -1.67, -1.84, -1.7, -1.73, -1.76, -1.76, -0.96, -0.96, -0.89, -0.89, -1.84, -3.27, -4.34, -4.34, -2.57, -1.68, -0.85, 0.0, 0.0, 0.0, 0.0, 0.0, 0.0, 0.0, 0.0, 0.0, -1.63, -3.64, -5.37, -5.3, -5.37, -4.74, -3.91, -2.99, -2.6, -1.84, -1.84, -1.84, 0.0, 0.0, 0.0, -0.57, -0.57, -0.57, -0.57, -0.53, -0.57, -0.57, -1.12, -1.12, -1.12, -1.12, -1.12, -1.2, -1.2, -1.76, -1.76, -1.76, -1.76, -1.76, -2.12, -2.26, -2.26, -2.26, -2.4, -2.4, -2.4, -2.73, -2.73, -2.73, -2.73, -2.73, -2.73, -2.73, -2.73, -2.89, -2.73, -2.73, -2.92, -2.75, -2.96, -2.96, -2.96, -2.75, -2.75, -2.44, -2.29, -2.29, -2.32, -2.32, -2.14, -1.76, -1.76, -1.73, -1.73, -1.73, -1.76, -1.76, -2.32, -2.16, -2.36, -2.4, -2.2, -2.44, -2.8, -1.98, -0.89, 0.0, -1.73, -2.54, -4.12, -5.1, -4.0, -3.49, -1.68, -0.89, -0.85, -0.82, -0.8, 0.0, 0.0, -0.78, -0.74, 0.0, 0.0, -0.76, -2.76, -4.43, -4.43, -4.46, -4.11, -3.79, -3.22, 0.0, 0.0, 0.0, 0.0, 0.0, 0.0, -0.57, -0.57, -0.57, -0.57, -0.57, -0.57, -0.57, -1.12, -1.12, -1.12, -1.12, -1.12, -1.2, -1.2, -1.76, -1.76, -1.76, -1.76, -1.76, -2.29, -2.26, -2.26, -2.26, -2.26, -2.4, -2.4, -2.92, -2.92, -2.92, -2.92, -2.73, -2.73, -2.73, -2.73, -2.73, -2.73, -2.92, -2.75, -2.75, -2.96, -2.96, -2.96, -2.96, -2.96, -2.29, -2.29, -2.32, -2.32, -2.32, -2.29, -2.29, -2.29, -2.26, -2.26, -2.26, -2.26, -2.29, -2.29, -3.0, -2.8, -2.82, -2.84, -2.84, -2.36, -1.16, 0.0, 0.0, -0.84, -1.75, -2.54, -2.67, -4.26, -4.34, -3.49, -3.36, -2.49, -2.6, -1.63, -1.7, -0.81, -0.82, -1.46, -1.45, -0.77, 0.0, 0.0, -1.98, -3.58, -3.58, -4.4, -3.16, -1.13, 1.4, 1.4, 1.4, 0.0, 0.0, 0.0, -0.57, -0.57, -0.57, -0.57, -0.57, -0.57, -1.12, -1.12, -1.12, -1.12, -1.12, -1.12, -1.12, -1.76, -1.76, -1.76, -1.76, -1.76, -1.76, -2.29, -2.29, -2.26, -2.26, -2.26, -2.26, -2.4, -2.4, -2.92, -2.92, -2.92, -2.92, -2.92, -2.92, -2.73, -2.73, -2.92, -2.92, -2.75, -2.96, -2.96, -2.96, -2.96, -2.77, -2.29, -2.29, -2.32, -2.32, -2.32, -2.8, -2.77, -2.77, -2.96, -2.26, -2.26, -2.26, -2.26, -2.75, -2.96, -2.77, -3.0, -3.04, -2.82, -3.49, -2.82, -2.36, -0.95, -0.89, -0.84, -0.89, -0.89, -0.89, -1.75, -2.69, -5.21, -4.4, -3.51, -3.25, -2.49, -2.6, -0.81, 0.0, -0.78, -1.62, -1.65, -0.96, 0.0, 0.0, -2.21, -2.98, -2.84, -1.6, 0.0, 1.2, 1.2, 1.2, 0.0, 0.0, -0.57, -0.57, -0.57, -0.57, -0.57, -0.57, -1.12, -1.12, -1.12, -1.12, -1.12, -1.12, -1.12, -1.65, -1.76, -1.76, -1.76, -1.76, -1.76, -1.76, -2.29, -2.29, -2.29, -2.26, -2.26, -2.26, -2.26, -2.26, -2.26, -2.92, -2.92, -2.92, -2.92, -2.92, -2.92, -2.92, -2.92, -2.75, -2.75, -2.96, -2.96, -2.77, -2.77, -2.77, -2.29, -2.32, -2.32, -2.32, -2.8, -2.8, -3.45, -3.42, -2.96, -2.96, -2.75, -2.75, -2.92, -2.75, -2.96, -2.96, -2.77, -3.45, -3.47, -3.47, -3.47, -2.82, -2.36, -1.73, -1.84, -0.84, -0.89, -0.85, 0.0, -0.89, -2.47, -4.4, -4.25, -3.51, -3.51, -2.41, -1.71, 0.0, 0.0, -1.67, -1.66, -1.58, 0.0, 0.0, -0.99, -1.74, -1.74, -1.4, 0.0, 0.0, 0.0, 0.0, 0.0, 0.0, -0.57, -0.57, -0.57, -0.57, -0.57, -0.57, -1.12, -1.12, -1.12, -1.12, -1.12, -1.12, -1.65, -1.65, -1.65, -1.76, -1.76, -1.76, -1.76, -2.29, -2.29, -2.29, -2.29, -2.44, -2.26, -2.26, -2.26, -2.26, -2.26, -2.26, -2.75, -2.92, -2.92, -2.92, -2.92, -2.92, -2.92, -2.75, -2.75, -2.96, -2.77, -2.77, -2.77, -2.29, -2.49, -2.32, -2.32, -2.8, -2.8, -3.45, -3.45, -3.45, -3.45, -3.42, -3.42, -3.42, -3.4, -3.42, -3.42, -2.96, -2.96, -3.45, -3.45, -3.47, -3.47, -3.47, -3.47, -3.55, -2.51, -2.67, -1.65, -1.65, -1.75, -1.75, -2.47, -3.36, -4.25, -3.51, -2.49, -2.49, -1.7, -0.83, 0.0, -0.89, -2.4, -1.58, -1.79, -1.9, -1.74, -1.98, -1.98, -1.13, 0.0, 0.0, 0.0, 0.0, -0.53, -0.53, -0.53, -0.57, -0.57, -0.57, -0.57, -1.12, -1.12, -1.12, -1.12, -1.12, -1.12, -1.65, -1.65, -1.65, -1.65, -1.65, -1.65, -1.65, -1.65, -2.29, -2.29, -2.29, -2.29, -2.29, -2.44, -2.44, -2.26, -2.26, -2.26, -2.75, -2.75, -2.75, -2.92, -2.92, -2.92, -2.92, -2.75, -2.75, -2.96, -2.77, -2.77, -2.77, -2.77, -2.77, -2.32, -2.32, -2.32, -2.8, -2.8, -3.45, -3.45, -3.45, -3.45, -3.68, -3.42, -3.42, -3.42, -3.42, -3.42, -3.42, -3.42, -3.45, -3.45, -3.45, -4.12, -4.12, -3.84, -4.42, -3.77, -2.67, -2.51, -1.73, -2.54, -2.44, -3.49, -3.49, -3.36, -3.36, -3.25, -2.49, -2.51, -1.6, -0.83, -0.89, -2.8, -1.9, -2.68, -2.4, -2.21, -1.98, -1.98, -1.13, 0.0, 0.0, 0.0, 0.0, -0.58, -0.58, -0.58, -0.53, -0.57, -0.57, -1.12, -1.12, -1.12, -1.12, -1.12, -1.12, -1.12, -1.65, -1.65, -1.65, -1.65, -1.65, -1.65, -1.65, -1.65, -2.14, -2.29, -2.29, -2.29, -2.29, -2.29, -2.29, -2.44, -2.44, -2.26, -2.75, -2.75, -2.75, -2.92, -2.92, -2.92, -2.92, -2.75, -2.75, -2.96, -2.77, -2.77, -2.77, -2.77, -3.0, -2.32, -2.32, -2.8, -3.04, -3.45, -3.45, -3.85, -3.85, -3.45, -3.45, -3.42, -3.42, -3.42, -3.42, -3.42, -3.42, -3.68, -3.68, -3.85, -3.85, -3.85, -4.12, -4.12, -4.1, -3.45, -2.67, -1.73, -0.89, -1.65, -1.67, -2.57, -2.7, -3.49, -3.36, -3.51, -3.39, -3.29, -2.53, -1.71, -1.68, -2.2, -2.97, -3.13, -3.13, -2.98, -2.84, -2.84, -2.23, -1.13, 0.0, 0.0, 0.0, -0.58, -0.58, -0.58, -0.58, -0.57, -1.12, -1.12, -1.12, -1.12, -1.12, -1.12, -1.65, -1.65, -1.65, -1.65, -1.65, -1.65, -1.65, -1.65, -1.65, -2.14, -2.14, -2.14, -2.14, -2.29, -2.29, -2.29, -2.29, -2.29, -2.44, -2.44, -2.75, -2.75, -2.75, -2.75, -2.92, -2.92, -2.75, -2.75, -2.96, -2.96, -2.77, -2.77, -2.77, -3.0, -2.8, -2.8, -2.32, -3.04, -3.47, -3.45, -3.85, -4.12, -3.85, -3.85, -3.45, -3.68, -3.84, -3.84, -4.08, -3.84, -3.84, -4.1, -4.1, -4.1, -4.1, -4.1, -4.47, -4.47, -4.47, -3.68, -2.54, -0.83, 0.0, 0.0, -0.89, -1.67, -2.7, -3.21, -3.36, -3.25, -3.39, -3.29, -3.19, -2.44, -1.69, -2.82, -3.82, -3.47, -3.58, -3.95, -4.15, -3.58, -2.84, -1.98, -1.2, -1.2, -1.2, -0.58, -0.58, -0.58, -0.58, -1.14, -1.12, -1.12, -1.12, -1.12, -1.12, -1.65, -1.65, -1.65, -1.65, -1.65, -1.65, -1.65, -1.8, -1.8, -2.32, -2.32, -2.32, -2.32, -2.32, -2.29, -2.29, -2.29, -2.29, -2.29, -2.29, -2.44, -2.96, -2.75, -2.75, -2.75, -2.75, -2.75, -2.75, -2.75, -2.96, -2.77, -2.77, -2.77, -3.0, -3.0, -2.8, -2.8, -2.8, -3.04, -3.47, -4.12, -4.12, -4.12, -3.85, -3.85, -3.85, -4.1, -3.84, -4.08, -4.08, -4.08, -4.08, -4.1, -4.1, -4.1, -4.47, -4.47, -4.47, -4.47, -4.47, -4.1, -3.0, -1.7, 0.0, 0.0, -1.73, -2.69, -3.49, -3.21, -4.07, -4.25, -4.13, -4.01, -3.42, -2.51, -2.6, -2.57, -3.79, -4.02, -4.47, -4.47, -4.82, -4.15, -4.15, -2.84, -2.53, -2.53, -2.53, -0.58, -0.58, -0.58, -0.58, -1.14, -1.12, -1.12, -1.12, -1.12, -1.12, -1.65, -1.65, -1.65, -1.65, -1.65, -1.65, -1.65, -1.8, -1.8, -2.32, -2.32, -2.32, -2.32, -2.32, -2.29, -2.29, -2.29, -2.29, -2.29, -2.29, -2.44, -2.96, -2.75, -2.75, -2.75, -2.75, -2.75, -2.75, -2.75, -2.96, -2.77, -2.77, -2.77, -3.0, -3.0, -2.8, -2.8, -2.8, -3.04, -3.47, -4.12, -4.12, -4.12, -3.85, -3.85, -3.85, -4.1, -3.84, -4.08, -4.08, -4.08, -4.08, -4.1, -4.1, -4.1, -4.47, -4.47, -4.47, -4.47, -4.47, -4.1, -3.0, -1.7, 0.0, 0.0, -1.73, -2.57, -3.49, -3.21, -4.07, -4.25, -4.13, -4.3, -4.01, -3.29, -2.49, -2.47, -3.55, -4.34, -4.34, -4.47, -4.47, -4.92, -4.82, -4.57, -4.0, -4.0, -4.0]}]